Time,TemperatureF,DewpointF,PressureIn,WindDirection,WindDirectionDegrees,WindSpeedMPH,WindSpeedGustMPH,Humidity,HourlyPrecipIn,Conditions,Clouds,dailyrainin,SoftwareType,DateUTC
2013-02-15 00:00:00,39.1,32.8,30.02,SSW,198,0.0,3.0,78,0.00,,---,0.00,VWS V13.01,2013-02-15 05:00:00,
2013-02-15 00:05:00,39.0,32.7,30.02,SSW,198,0.0,1.0,78,0.00,,---,0.00,VWS V13.01,2013-02-15 05:05:00,
2013-02-15 00:10:00,38.8,32.5,30.02,SSW,198,0.0,2.0,78,0.00,,---,0.00,VWS V13.01,2013-02-15 05:10:00,
2013-02-15 00:15:00,38.7,32.4,30.02,SSW,198,0.0,3.0,78,0.00,,---,0.00,VWS V13.01,2013-02-15 05:15:00,
2013-02-15 00:20:00,38.6,32.7,30.02,SSW,198,0.0,3.0,79,0.00,,---,0.00,VWS V13.01,2013-02-15 05:20:00,
2013-02-15 00:25:00,38.4,32.5,30.03,SSW,198,0.0,3.0,79,0.00,,---,0.00,VWS V13.01,2013-02-15 05:25:00,
2013-02-15 00:30:00,38.3,32.4,30.03,SSW,198,0.0,3.0,79,0.00,,---,0.00,VWS V13.01,2013-02-15 05:30:00,
2013-02-15 00:31:00,38.3,32.4,30.03,SSW,198,0.0,3.0,79,0.00,,---,0.00,VWS V13.01,2013-02-15 05:31:00,
2013-02-15 00:35:00,38.2,32.6,30.03,SSW,198,0.0,1.0,80,0.00,,---,0.00,VWS V13.01,2013-02-15 05:35:00,
2013-02-15 00:36:00,38.2,32.6,30.03,SSW,198,0.0,1.0,80,0.00,,---,0.00,VWS V13.01,2013-02-15 05:36:00,
2013-02-15 00:40:00,38.1,32.5,30.03,SSW,198,0.0,1.0,80,0.00,,---,0.00,VWS V13.01,2013-02-15 05:40:00,
2013-02-15 00:41:00,38.1,32.5,30.03,SSW,198,0.0,1.0,80,0.00,,---,0.00,VWS V13.01,2013-02-15 05:41:00,
2013-02-15 00:45:00,38.0,32.4,30.04,SSW,200,0.0,4.0,80,0.00,,---,0.00,VWS V13.01,2013-02-15 05:45:00,
2013-02-15 00:46:00,38.0,32.4,30.04,SSW,200,0.0,4.0,80,0.00,,---,0.00,VWS V13.01,2013-02-15 05:46:00,
2013-02-15 00:50:00,37.9,32.6,30.04,SSW,199,0.0,4.0,81,0.00,,---,0.00,VWS V13.01,2013-02-15 05:50:00,
2013-02-15 00:51:00,37.9,32.6,30.04,SSW,207,3.0,6.0,81,0.00,,---,0.00,VWS V13.01,2013-02-15 05:51:00,
2013-02-15 00:55:00,37.8,32.5,30.04,SSW,207,0.0,6.0,81,0.00,,---,0.00,VWS V13.01,2013-02-15 05:55:00,
2013-02-15 00:56:00,37.8,32.5,30.04,SSW,207,0.0,6.0,81,0.00,,---,0.00,VWS V13.01,2013-02-15 05:56:00,
2013-02-15 01:00:00,37.8,32.5,30.04,SSW,207,0.0,6.0,81,0.00,,---,0.00,VWS V13.01,2013-02-15 06:00:00,
2013-02-15 01:01:00,37.8,32.5,30.04,SSW,207,0.0,6.0,81,0.00,,---,0.00,VWS V13.01,2013-02-15 06:01:00,
2013-02-15 01:05:00,37.7,32.4,30.04,SSW,207,0.0,0.0,81,0.00,,---,0.00,VWS V13.01,2013-02-15 06:05:00,
2013-02-15 01:06:00,37.7,32.7,30.04,SSW,207,0.0,0.0,82,0.00,,---,0.00,VWS V13.01,2013-02-15 06:06:00,
2013-02-15 01:10:00,37.6,32.6,30.04,SSW,207,0.0,0.0,82,0.00,,---,0.00,VWS V13.01,2013-02-15 06:10:00,
2013-02-15 01:11:00,37.7,32.7,30.04,SSW,207,0.0,0.0,82,0.00,,---,0.00,VWS V13.01,2013-02-15 06:11:00,
2013-02-15 01:16:00,37.5,32.5,30.04,SSW,207,0.0,0.0,82,0.00,,---,0.00,VWS V13.01,2013-02-15 06:16:00,
2013-02-15 01:21:00,37.4,32.4,30.04,SSW,207,0.0,3.0,82,0.00,,---,0.00,VWS V13.01,2013-02-15 06:21:00,
2013-02-15 01:26:00,37.3,32.3,30.04,SSW,207,0.0,3.0,82,0.00,,---,0.00,VWS V13.01,2013-02-15 06:26:00,
2013-02-15 01:31:00,37.2,32.2,30.04,SSW,207,0.0,0.0,82,0.00,,---,0.00,VWS V13.01,2013-02-15 06:31:00,
2013-02-15 01:36:00,37.1,32.1,30.04,SSW,207,0.0,2.0,82,0.00,,---,0.00,VWS V13.01,2013-02-15 06:36:00,
2013-02-15 01:37:00,37.1,32.1,30.04,SSW,207,0.0,2.0,82,0.00,,---,0.00,VWS V13.01,2013-02-15 06:37:00,
2013-02-15 01:41:00,37.0,32.0,30.04,SSW,207,0.0,2.0,82,0.00,,---,0.00,VWS V13.01,2013-02-15 06:41:00,
2013-02-15 01:42:00,37.0,32.0,30.04,SSW,207,0.0,2.0,82,0.00,,---,0.00,VWS V13.01,2013-02-15 06:42:00,
2013-02-15 01:46:00,37.0,32.3,30.04,SSW,207,0.0,2.0,83,0.00,,---,0.00,VWS V13.01,2013-02-15 06:46:00,
2013-02-15 01:47:00,36.9,32.2,30.04,SSW,207,0.0,2.0,83,0.00,,---,0.00,VWS V13.01,2013-02-15 06:47:00,
2013-02-15 01:51:00,36.9,32.2,30.04,SSW,207,0.0,2.0,83,0.00,,---,0.00,VWS V13.01,2013-02-15 06:51:00,
2013-02-15 01:52:00,36.9,32.2,30.04,SSW,207,0.0,2.0,83,0.00,,---,0.00,VWS V13.01,2013-02-15 06:52:00,
2013-02-15 01:56:00,36.8,32.1,30.04,SSW,207,0.0,2.0,83,0.00,,---,0.00,VWS V13.01,2013-02-15 06:56:00,
2013-02-15 01:57:00,36.8,32.1,30.04,SSW,207,0.0,2.0,83,0.00,,---,0.00,VWS V13.01,2013-02-15 06:57:00,
2013-02-15 01:58:00,36.8,32.1,30.04,SSW,207,0.0,2.0,83,0.00,,---,0.00,VWS V13.01,2013-02-15 06:58:00,
2013-02-15 02:01:00,36.8,32.1,30.04,SSW,207,0.0,0.0,83,0.00,,---,0.00,VWS V13.01,2013-02-15 07:01:00,
2013-02-15 02:02:00,36.8,32.1,30.04,SSW,207,0.0,0.0,83,0.00,,---,0.00,VWS V13.01,2013-02-15 07:02:00,
2013-02-15 02:03:00,36.7,32.0,30.04,SSW,207,0.0,0.0,83,0.00,,---,0.00,VWS V13.01,2013-02-15 07:03:00,
2013-02-15 02:06:00,36.7,32.3,30.03,SSW,207,0.0,0.0,84,0.00,,---,0.00,VWS V13.01,2013-02-15 07:06:00,
2013-02-15 02:07:00,36.7,32.3,30.04,SSW,207,0.0,0.0,84,0.00,,---,0.00,VWS V13.01,2013-02-15 07:07:00,
2013-02-15 02:08:00,36.7,32.3,30.04,SSW,207,0.0,0.0,84,0.00,,---,0.00,VWS V13.01,2013-02-15 07:08:00,
2013-02-15 02:11:00,36.6,32.2,30.03,SSW,207,0.0,0.0,84,0.00,,---,0.00,VWS V13.01,2013-02-15 07:11:00,
2013-02-15 02:12:00,36.6,32.2,30.03,SSW,207,0.0,0.0,84,0.00,,---,0.00,VWS V13.01,2013-02-15 07:12:00,
2013-02-15 02:13:00,36.6,32.2,30.03,SSW,207,0.0,0.0,84,0.00,,---,0.00,VWS V13.01,2013-02-15 07:13:00,
2013-02-15 02:17:00,36.5,32.1,30.03,SSW,207,0.0,0.0,84,0.00,,---,0.00,VWS V13.01,2013-02-15 07:17:00,
2013-02-15 02:18:00,36.5,32.4,30.03,SSW,207,0.0,0.0,85,0.00,,---,0.00,VWS V13.01,2013-02-15 07:18:00,
2013-02-15 02:22:00,36.4,32.3,30.03,SSW,207,0.0,0.0,85,0.00,,---,0.00,VWS V13.01,2013-02-15 07:22:00,
2013-02-15 02:23:00,36.4,32.3,30.03,SSW,207,0.0,0.0,85,0.00,,---,0.00,VWS V13.01,2013-02-15 07:23:00,
2013-02-15 02:27:00,36.3,32.2,30.03,SSW,207,0.0,0.0,85,0.00,,---,0.00,VWS V13.01,2013-02-15 07:27:00,
2013-02-15 02:28:00,36.3,32.2,30.03,SSW,207,0.0,0.0,85,0.00,,---,0.00,VWS V13.01,2013-02-15 07:28:00,
2013-02-15 02:32:00,36.1,31.7,30.03,SSW,207,0.0,0.0,84,0.00,,---,0.00,VWS V13.01,2013-02-15 07:32:00,
2013-02-15 02:33:00,36.1,31.7,30.03,SSW,207,0.0,0.0,84,0.00,,---,0.00,VWS V13.01,2013-02-15 07:33:00,
2013-02-15 02:37:00,36.0,31.6,30.03,SSW,207,0.0,0.0,84,0.00,,---,0.00,VWS V13.01,2013-02-15 07:37:00,
2013-02-15 02:38:00,36.0,31.6,30.03,SSW,207,0.0,0.0,84,0.00,,---,0.00,VWS V13.01,2013-02-15 07:38:00,
2013-02-15 02:42:00,35.9,31.5,30.03,SSW,207,0.0,0.0,84,0.00,,---,0.00,VWS V13.01,2013-02-15 07:42:00,
2013-02-15 02:43:00,35.9,31.8,30.03,SSW,207,0.0,0.0,85,0.00,,---,0.00,VWS V13.01,2013-02-15 07:43:00,
2013-02-15 02:47:00,35.7,31.6,30.03,SSW,207,0.0,0.0,85,0.00,,---,0.00,VWS V13.01,2013-02-15 07:47:00,
2013-02-15 02:48:00,35.7,31.6,30.03,SSW,207,0.0,0.0,85,0.00,,---,0.00,VWS V13.01,2013-02-15 07:48:00,
2013-02-15 02:52:00,35.5,31.5,30.03,SSW,207,0.0,0.0,85,0.00,,---,0.00,VWS V13.01,2013-02-15 07:52:00,
2013-02-15 02:53:00,35.5,31.5,30.03,SSW,207,0.0,0.0,85,0.00,,---,0.00,VWS V13.01,2013-02-15 07:53:00,
2013-02-15 02:57:00,35.4,31.1,30.03,SSW,207,0.0,0.0,84,0.00,,---,0.00,VWS V13.01,2013-02-15 07:57:00,
2013-02-15 02:58:00,35.3,31.0,30.03,SSW,207,0.0,0.0,84,0.00,,---,0.00,VWS V13.01,2013-02-15 07:58:00,
2013-02-15 02:59:00,35.3,31.0,30.03,SSW,207,0.0,0.0,84,0.00,,---,0.00,VWS V13.01,2013-02-15 07:59:00,
2013-02-15 03:02:00,35.2,30.9,30.03,SSW,207,0.0,0.0,84,0.00,,---,0.00,VWS V13.01,2013-02-15 08:02:00,
2013-02-15 03:04:00,35.2,30.9,30.03,SSW,207,0.0,0.0,84,0.00,,---,0.00,VWS V13.01,2013-02-15 08:04:00,
2013-02-15 03:07:00,35.0,31.0,30.02,SSW,207,0.0,0.0,85,0.00,,---,0.00,VWS V13.01,2013-02-15 08:07:00,
2013-02-15 03:08:00,35.0,31.0,30.02,SSW,207,0.0,0.0,85,0.00,,---,0.00,VWS V13.01,2013-02-15 08:08:00,
2013-02-15 03:09:00,35.0,31.0,30.02,SSW,207,0.0,0.0,85,0.00,,---,0.00,VWS V13.01,2013-02-15 08:09:00,
2013-02-15 03:12:00,34.9,30.9,30.02,SSW,207,0.0,0.0,85,0.00,,---,0.00,VWS V13.01,2013-02-15 08:12:00,
2013-02-15 03:13:00,34.8,30.8,30.02,SSW,207,0.0,0.0,85,0.00,,---,0.00,VWS V13.01,2013-02-15 08:13:00,
2013-02-15 03:14:00,34.8,30.8,30.02,SSW,207,0.0,0.0,85,0.00,,---,0.00,VWS V13.01,2013-02-15 08:14:00,
2013-02-15 03:18:00,34.7,30.7,30.02,SSW,207,0.0,0.0,85,0.00,,---,0.00,VWS V13.01,2013-02-15 08:18:00,
2013-02-15 03:19:00,34.7,30.7,30.02,SSW,207,0.0,0.0,85,0.00,,---,0.00,VWS V13.01,2013-02-15 08:19:00,
2013-02-15 03:23:00,34.5,30.5,30.02,SSW,207,0.0,0.0,85,0.00,,---,0.00,VWS V13.01,2013-02-15 08:23:00,
2013-02-15 03:24:00,34.4,30.4,30.02,SSW,207,0.0,0.0,85,0.00,,---,0.00,VWS V13.01,2013-02-15 08:24:00,
2013-02-15 03:25:00,34.4,30.4,30.02,SSW,207,0.0,0.0,85,0.00,,---,0.00,VWS V13.01,2013-02-15 08:25:00,
2013-02-15 03:28:00,34.4,30.4,30.02,SSW,207,0.0,0.0,85,0.00,,---,0.00,VWS V13.01,2013-02-15 08:28:00,
2013-02-15 03:29:00,34.4,30.4,30.02,SSW,207,0.0,0.0,85,0.00,,---,0.00,VWS V13.01,2013-02-15 08:29:00,
2013-02-15 03:30:00,34.4,30.4,30.02,SSW,207,0.0,0.0,85,0.00,,---,0.00,VWS V13.01,2013-02-15 08:30:00,
2013-02-15 03:33:00,34.4,30.6,30.02,SSW,207,0.0,0.0,86,0.00,,---,0.00,VWS V13.01,2013-02-15 08:33:00,
2013-02-15 03:34:00,34.4,30.6,30.02,SSW,207,0.0,0.0,86,0.00,,---,0.00,VWS V13.01,2013-02-15 08:34:00,
2013-02-15 03:35:00,34.4,30.6,30.01,SSW,207,0.0,0.0,86,0.00,,---,0.00,VWS V13.01,2013-02-15 08:35:00,
2013-02-15 03:38:00,34.3,30.6,30.02,SSW,207,0.0,1.0,86,0.00,,---,0.00,VWS V13.01,2013-02-15 08:38:00,
2013-02-15 03:39:00,34.3,30.6,30.02,SSW,207,0.0,1.0,86,0.00,,---,0.00,VWS V13.01,2013-02-15 08:39:00,
2013-02-15 03:40:00,34.3,30.6,30.02,SSW,207,0.0,1.0,86,0.00,,---,0.00,VWS V13.01,2013-02-15 08:40:00,
2013-02-15 03:43:00,34.2,30.7,30.02,SSW,207,0.0,1.0,87,0.00,,---,0.00,VWS V13.01,2013-02-15 08:43:00,
2013-02-15 03:44:00,34.2,30.7,30.02,SSW,207,0.0,1.0,87,0.00,,---,0.00,VWS V13.01,2013-02-15 08:44:00,
2013-02-15 03:45:00,34.2,30.7,30.02,SSW,207,0.0,1.0,87,0.00,,---,0.00,VWS V13.01,2013-02-15 08:45:00,
2013-02-15 03:48:00,34.1,30.6,30.02,SSW,207,0.0,1.0,87,0.00,,---,0.00,VWS V13.01,2013-02-15 08:48:00,
2013-02-15 03:49:00,34.1,30.6,30.02,SSW,207,0.0,1.0,87,0.00,,---,0.00,VWS V13.01,2013-02-15 08:49:00,
2013-02-15 03:50:00,34.1,30.6,30.02,SSW,207,0.0,1.0,87,0.00,,---,0.00,VWS V13.01,2013-02-15 08:50:00,
2013-02-15 03:53:00,34.0,30.5,30.02,SSW,207,0.0,1.0,87,0.00,,---,0.00,VWS V13.01,2013-02-15 08:53:00,
2013-02-15 03:54:00,34.0,30.5,30.02,SSW,207,0.0,1.0,87,0.00,,---,0.00,VWS V13.01,2013-02-15 08:54:00,
2013-02-15 03:55:00,34.0,30.5,30.02,SSW,207,0.0,1.0,87,0.00,,---,0.00,VWS V13.01,2013-02-15 08:55:00,
2013-02-15 03:58:00,33.9,30.5,30.02,SSW,207,0.0,1.0,87,0.00,,---,0.00,VWS V13.01,2013-02-15 08:58:00,
2013-02-15 03:59:00,33.9,30.5,30.02,SSW,207,0.0,1.0,87,0.00,,---,0.00,VWS V13.01,2013-02-15 08:59:00,
2013-02-15 04:00:00,33.9,30.5,30.02,SSW,207,0.0,1.0,87,0.00,,---,0.00,VWS V13.01,2013-02-15 09:00:00,
2013-02-15 04:04:00,33.9,30.7,30.02,SSW,207,0.0,0.0,88,0.00,,---,0.00,VWS V13.01,2013-02-15 09:04:00,
2013-02-15 04:05:00,33.9,30.5,30.02,SSW,207,0.0,0.0,87,0.00,,---,0.00,VWS V13.01,2013-02-15 09:05:00,
2013-02-15 04:09:00,33.9,30.7,30.02,SSW,207,0.0,2.0,88,0.00,,---,0.00,VWS V13.01,2013-02-15 09:09:00,
2013-02-15 04:10:00,33.9,30.7,30.02,SSW,207,0.0,2.0,88,0.00,,---,0.00,VWS V13.01,2013-02-15 09:10:00,
2013-02-15 04:14:00,33.9,30.7,30.02,SSW,207,0.0,2.0,88,0.00,,---,0.00,VWS V13.01,2013-02-15 09:14:00,
2013-02-15 04:15:00,33.8,30.6,30.02,SSW,207,0.0,2.0,88,0.00,,---,0.00,VWS V13.01,2013-02-15 09:15:00,
2013-02-15 04:16:00,33.8,30.6,30.02,SSW,207,0.0,2.0,88,0.00,,---,0.00,VWS V13.01,2013-02-15 09:16:00,
2013-02-15 04:19:00,33.8,30.6,30.02,SSW,207,0.0,2.0,88,0.00,,---,0.00,VWS V13.01,2013-02-15 09:19:00,
2013-02-15 04:20:00,33.8,30.6,30.02,SSW,207,0.0,2.0,88,0.00,,---,0.00,VWS V13.01,2013-02-15 09:20:00,
2013-02-15 04:21:00,33.8,30.6,30.02,SSW,207,0.0,2.0,88,0.00,,---,0.00,VWS V13.01,2013-02-15 09:21:00,
2013-02-15 04:24:00,33.8,30.6,30.02,SSW,207,0.0,2.0,88,0.00,,---,0.00,VWS V13.01,2013-02-15 09:24:00,
2013-02-15 04:26:00,33.8,30.6,30.02,SSW,207,0.0,2.0,88,0.00,,---,0.00,VWS V13.01,2013-02-15 09:26:00,
2013-02-15 04:29:00,33.7,30.8,30.02,SSW,207,0.0,2.0,89,0.00,,---,0.00,VWS V13.01,2013-02-15 09:29:00,
2013-02-15 04:31:00,33.7,30.8,30.02,SSW,207,0.0,2.0,89,0.00,,---,0.00,VWS V13.01,2013-02-15 09:31:00,
2013-02-15 04:34:00,33.7,30.8,30.02,SSW,207,0.0,0.0,89,0.00,,---,0.00,VWS V13.01,2013-02-15 09:34:00,
2013-02-15 04:36:00,33.7,30.8,30.02,SSW,207,0.0,0.0,89,0.00,,---,0.00,VWS V13.01,2013-02-15 09:36:00,
2013-02-15 04:39:00,33.6,30.4,30.02,SSW,207,0.0,0.0,88,0.00,,---,0.00,VWS V13.01,2013-02-15 09:39:00,
2013-02-15 04:40:00,33.6,30.4,30.02,SSW,207,0.0,0.0,88,0.00,,---,0.00,VWS V13.01,2013-02-15 09:40:00,
2013-02-15 04:41:00,33.6,30.4,30.02,SSW,207,0.0,0.0,88,0.00,,---,0.00,VWS V13.01,2013-02-15 09:41:00,
2013-02-15 04:44:00,33.6,30.7,30.02,SSW,207,0.0,0.0,89,0.00,,---,0.00,VWS V13.01,2013-02-15 09:44:00,
2013-02-15 04:45:00,33.6,30.7,30.02,SSW,207,0.0,0.0,89,0.00,,---,0.00,VWS V13.01,2013-02-15 09:45:00,
2013-02-15 04:46:00,33.6,30.7,30.02,SSW,207,0.0,0.0,89,0.00,,---,0.00,VWS V13.01,2013-02-15 09:46:00,
2013-02-15 04:49:00,33.6,30.7,30.03,SSW,207,0.0,0.0,89,0.00,,---,0.00,VWS V13.01,2013-02-15 09:49:00,
2013-02-15 04:50:00,33.5,30.6,30.03,SSW,207,0.0,0.0,89,0.00,,---,0.00,VWS V13.01,2013-02-15 09:50:00,
2013-02-15 04:51:00,33.6,30.7,30.03,SSW,207,0.0,0.0,89,0.00,,---,0.00,VWS V13.01,2013-02-15 09:51:00,
2013-02-15 04:54:00,33.5,30.6,30.03,SSW,207,0.0,0.0,89,0.00,,---,0.00,VWS V13.01,2013-02-15 09:54:00,
2013-02-15 04:55:00,33.5,30.6,30.03,SSW,207,0.0,0.0,89,0.00,,---,0.00,VWS V13.01,2013-02-15 09:55:00,
2013-02-15 04:56:00,33.6,30.7,30.03,SSW,207,0.0,0.0,89,0.00,,---,0.00,VWS V13.01,2013-02-15 09:56:00,
2013-02-15 04:59:00,33.6,30.7,30.03,SSW,207,0.0,0.0,89,0.00,,---,0.00,VWS V13.01,2013-02-15 09:59:00,
2013-02-15 05:00:00,33.5,30.6,30.03,SSW,207,0.0,0.0,89,0.00,,---,0.00,VWS V13.01,2013-02-15 10:00:00,
2013-02-15 05:01:00,33.6,30.7,30.03,SSW,207,0.0,0.0,89,0.00,,---,0.00,VWS V13.01,2013-02-15 10:01:00,
2013-02-15 05:02:00,33.6,30.7,30.03,SSW,207,0.0,0.0,89,0.00,,---,0.00,VWS V13.01,2013-02-15 10:02:00,
2013-02-15 05:04:00,33.6,30.7,30.03,SSW,207,0.0,0.0,89,0.00,,---,0.00,VWS V13.01,2013-02-15 10:04:00,
2013-02-15 05:05:00,33.6,30.7,30.03,SSW,207,0.0,0.0,89,0.00,,---,0.00,VWS V13.01,2013-02-15 10:05:00,
2013-02-15 05:06:00,33.6,30.7,30.03,SSW,207,0.0,1.0,89,0.00,,---,0.00,VWS V13.01,2013-02-15 10:06:00,
2013-02-15 05:07:00,33.6,30.7,30.03,SSW,207,0.0,1.0,89,0.00,,---,0.00,VWS V13.01,2013-02-15 10:07:00,
2013-02-15 05:09:00,33.7,31.1,30.03,SSW,207,0.0,1.0,90,0.00,,---,0.00,VWS V13.01,2013-02-15 10:09:00,
2013-02-15 05:10:00,33.7,31.1,30.03,SSW,207,0.0,1.0,90,0.00,,---,0.00,VWS V13.01,2013-02-15 10:10:00,
2013-02-15 05:12:00,33.7,31.1,30.03,SSW,207,0.0,1.0,90,0.00,,---,0.00,VWS V13.01,2013-02-15 10:12:00,
2013-02-15 05:14:00,33.7,31.1,30.03,SSW,207,0.0,1.0,90,0.00,,---,0.00,VWS V13.01,2013-02-15 10:14:00,
2013-02-15 05:15:00,33.7,31.1,30.02,SSW,207,0.0,1.0,90,0.00,,---,0.00,VWS V13.01,2013-02-15 10:15:00,
2013-02-15 05:17:00,33.7,31.1,30.02,SSW,207,0.0,1.0,90,0.00,,---,0.00,VWS V13.01,2013-02-15 10:17:00,
2013-02-15 05:19:00,33.8,31.2,30.02,SSW,207,0.0,1.0,90,0.00,,---,0.00,VWS V13.01,2013-02-15 10:19:00,
2013-02-15 05:20:00,33.8,31.2,30.02,SSW,207,0.0,1.0,90,0.00,,---,0.00,VWS V13.01,2013-02-15 10:20:00,
2013-02-15 05:22:00,33.8,31.2,30.02,SSW,207,0.0,1.0,90,0.00,,---,0.00,VWS V13.01,2013-02-15 10:22:00,
2013-02-15 05:25:00,33.8,31.2,30.02,SSW,207,0.0,1.0,90,0.00,,---,0.00,VWS V13.01,2013-02-15 10:25:00,
2013-02-15 05:27:00,33.8,31.5,30.02,SSW,207,0.0,1.0,91,0.00,,---,0.00,VWS V13.01,2013-02-15 10:27:00,
2013-02-15 05:28:00,33.9,31.6,30.02,SSW,207,0.0,1.0,91,0.00,,---,0.00,VWS V13.01,2013-02-15 10:28:00,
2013-02-15 05:29:00,33.9,31.6,30.02,SSW,207,0.0,1.0,91,0.00,,---,0.00,VWS V13.01,2013-02-15 10:29:00,
2013-02-15 05:30:00,33.9,31.6,30.02,SSW,207,0.0,1.0,91,0.00,,---,0.00,VWS V13.01,2013-02-15 10:30:00,
2013-02-15 05:32:00,33.9,31.6,30.02,SSW,207,0.0,0.0,91,0.00,,---,0.00,VWS V13.01,2013-02-15 10:32:00,
2013-02-15 05:33:00,33.8,31.5,30.02,SSW,207,0.0,0.0,91,0.00,,---,0.00,VWS V13.01,2013-02-15 10:33:00,
2013-02-15 05:35:00,33.8,31.5,30.02,SSW,207,0.0,0.0,91,0.00,,---,0.00,VWS V13.01,2013-02-15 10:35:00,
2013-02-15 05:37:00,33.8,31.5,30.02,SSW,207,0.0,1.0,91,0.00,,---,0.00,VWS V13.01,2013-02-15 10:37:00,
2013-02-15 05:38:00,33.8,31.5,30.02,SSW,207,0.0,1.0,91,0.00,,---,0.00,VWS V13.01,2013-02-15 10:38:00,
2013-02-15 05:40:00,33.8,31.5,30.02,SSW,207,0.0,1.0,91,0.00,,---,0.00,VWS V13.01,2013-02-15 10:40:00,
2013-02-15 05:41:00,33.8,31.5,30.02,SSW,207,0.0,1.0,91,0.00,,---,0.00,VWS V13.01,2013-02-15 10:41:00,
2013-02-15 05:42:00,33.8,31.5,30.02,SSW,207,0.0,1.0,91,0.00,,---,0.00,VWS V13.01,2013-02-15 10:42:00,
2013-02-15 05:43:00,33.8,31.5,30.02,SSW,207,0.0,1.0,91,0.00,,---,0.00,VWS V13.01,2013-02-15 10:43:00,
2013-02-15 05:45:00,33.8,31.5,30.02,SSW,207,0.0,1.0,91,0.00,,---,0.00,VWS V13.01,2013-02-15 10:45:00,
2013-02-15 05:46:00,33.8,31.2,30.02,SSW,207,0.0,1.0,90,0.00,,---,0.00,VWS V13.01,2013-02-15 10:46:00,
2013-02-15 05:47:00,33.7,31.4,30.02,SSW,207,0.0,1.0,91,0.00,,---,0.00,VWS V13.01,2013-02-15 10:47:00,
2013-02-15 05:49:00,33.7,31.4,30.02,SSW,207,0.0,1.0,91,0.00,,---,0.00,VWS V13.01,2013-02-15 10:49:00,
2013-02-15 05:50:00,33.7,31.1,30.02,SSW,207,0.0,1.0,90,0.00,,---,0.00,VWS V13.01,2013-02-15 10:50:00,
2013-02-15 05:51:00,33.7,31.1,30.02,SSW,207,0.0,1.0,90,0.00,,---,0.00,VWS V13.01,2013-02-15 10:51:00,
2013-02-15 05:52:00,33.7,31.1,30.02,SSW,207,0.0,1.0,90,0.00,,---,0.00,VWS V13.01,2013-02-15 10:52:00,
2013-02-15 05:54:00,33.7,31.1,30.02,SSW,207,0.0,1.0,90,0.00,,---,0.00,VWS V13.01,2013-02-15 10:54:00,
2013-02-15 05:55:00,33.6,31.0,30.02,SSW,207,0.0,1.0,90,0.00,,---,0.00,VWS V13.01,2013-02-15 10:55:00,
2013-02-15 05:56:00,33.6,31.0,30.02,SSW,207,0.0,1.0,90,0.00,,---,0.00,VWS V13.01,2013-02-15 10:56:00,
2013-02-15 05:57:00,33.6,31.0,30.02,SSW,207,0.0,1.0,90,0.00,,---,0.00,VWS V13.01,2013-02-15 10:57:00,
2013-02-15 05:59:00,33.5,31.2,30.02,SSW,207,0.0,1.0,91,0.00,,---,0.00,VWS V13.01,2013-02-15 10:59:00,
2013-02-15 06:00:00,33.5,30.9,30.02,SSW,207,0.0,1.0,90,0.00,,---,0.00,VWS V13.01,2013-02-15 11:00:00,
2013-02-15 06:01:00,33.5,30.9,30.02,SSW,207,0.0,0.0,90,0.00,,---,0.00,VWS V13.01,2013-02-15 11:01:00,
2013-02-15 06:02:00,33.5,30.9,30.02,SSW,207,0.0,0.0,90,0.00,,---,0.00,VWS V13.01,2013-02-15 11:02:00,
2013-02-15 06:04:00,33.4,30.8,30.02,SSW,207,0.0,0.0,90,0.00,,---,0.00,VWS V13.01,2013-02-15 11:04:00,
2013-02-15 06:05:00,33.4,30.8,30.02,SSW,207,0.0,0.0,90,0.00,,---,0.00,VWS V13.01,2013-02-15 11:05:00,
2013-02-15 06:06:00,33.4,30.8,30.02,SSW,207,0.0,0.0,90,0.00,,---,0.00,VWS V13.01,2013-02-15 11:06:00,
2013-02-15 06:08:00,33.4,30.8,30.02,SSW,207,0.0,0.0,90,0.00,,---,0.00,VWS V13.01,2013-02-15 11:08:00,
2013-02-15 06:09:00,33.4,30.8,30.02,SSW,207,0.0,0.0,90,0.00,,---,0.00,VWS V13.01,2013-02-15 11:09:00,
2013-02-15 06:10:00,33.3,30.7,30.02,SSW,207,0.0,0.0,90,0.00,,---,0.00,VWS V13.01,2013-02-15 11:10:00,
2013-02-15 06:11:00,33.3,30.7,30.02,SSW,207,0.0,0.0,90,0.00,,---,0.00,VWS V13.01,2013-02-15 11:11:00,
2013-02-15 06:13:00,33.3,30.7,30.02,SSW,207,0.0,0.0,90,0.00,,---,0.00,VWS V13.01,2013-02-15 11:13:00,
2013-02-15 06:14:00,33.2,30.6,30.02,SSW,207,0.0,0.0,90,0.00,,---,0.00,VWS V13.01,2013-02-15 11:14:00,
2013-02-15 06:15:00,33.2,30.6,30.03,SSW,207,0.0,0.0,90,0.00,,---,0.00,VWS V13.01,2013-02-15 11:15:00,
2013-02-15 06:16:00,33.2,30.6,30.03,SSW,207,0.0,0.0,90,0.00,,---,0.00,VWS V13.01,2013-02-15 11:16:00,
2013-02-15 06:18:00,33.2,30.6,30.03,SSW,207,0.0,0.0,90,0.00,,---,0.00,VWS V13.01,2013-02-15 11:18:00,
2013-02-15 06:19:00,33.2,30.6,30.03,SSW,207,0.0,0.0,90,0.00,,---,0.00,VWS V13.01,2013-02-15 11:19:00,
2013-02-15 06:20:00,33.1,30.5,30.03,SSW,207,0.0,0.0,90,0.00,,---,0.00,VWS V13.01,2013-02-15 11:20:00,
2013-02-15 06:21:00,33.1,30.5,30.03,SSW,207,0.0,0.0,90,0.00,,---,0.00,VWS V13.01,2013-02-15 11:21:00,
2013-02-15 06:24:00,33.0,30.4,30.03,SSW,207,0.0,0.0,90,0.00,,---,0.00,VWS V13.01,2013-02-15 11:24:00,
2013-02-15 06:26:00,33.0,30.4,30.03,SSW,207,0.0,0.0,90,0.00,,---,0.00,VWS V13.01,2013-02-15 11:26:00,
2013-02-15 06:29:00,33.0,30.4,30.03,SSW,207,0.0,0.0,90,0.00,,---,0.00,VWS V13.01,2013-02-15 11:29:00,
2013-02-15 06:31:00,33.0,30.4,30.03,SSW,207,0.0,0.0,90,0.00,,---,0.00,VWS V13.01,2013-02-15 11:31:00,
2013-02-15 06:34:00,32.9,30.3,30.03,SSW,207,0.0,0.0,90,0.00,,---,0.00,VWS V13.01,2013-02-15 11:34:00,
2013-02-15 06:36:00,32.9,30.3,30.03,SSW,207,0.0,0.0,90,0.00,,---,0.00,VWS V13.01,2013-02-15 11:36:00,
2013-02-15 06:37:00,32.9,30.3,30.03,SSW,207,0.0,0.0,90,0.00,,---,0.00,VWS V13.01,2013-02-15 11:37:00,
2013-02-15 06:39:00,32.8,30.2,30.03,SSW,207,0.0,0.0,90,0.00,,---,0.00,VWS V13.01,2013-02-15 11:39:00,
2013-02-15 06:41:00,32.8,30.2,30.04,SSW,207,0.0,0.0,90,0.00,,---,0.00,VWS V13.01,2013-02-15 11:41:00,
2013-02-15 06:42:00,32.8,30.2,30.03,SSW,207,0.0,0.0,90,0.00,,---,0.00,VWS V13.01,2013-02-15 11:42:00,
2013-02-15 06:44:00,32.8,30.2,30.04,SSW,207,0.0,0.0,90,0.00,,---,0.00,VWS V13.01,2013-02-15 11:44:00,
2013-02-15 06:46:00,32.8,30.2,30.04,SSW,207,0.0,0.0,90,0.00,,---,0.00,VWS V13.01,2013-02-15 11:46:00,
2013-02-15 06:47:00,32.7,30.1,30.04,SSW,207,0.0,0.0,90,0.00,,---,0.00,VWS V13.01,2013-02-15 11:47:00,
2013-02-15 06:49:00,32.7,30.1,30.04,SSW,207,0.0,0.0,90,0.00,,---,0.00,VWS V13.01,2013-02-15 11:49:00,
2013-02-15 06:50:00,32.7,30.1,30.04,SSW,207,0.0,0.0,90,0.00,,---,0.00,VWS V13.01,2013-02-15 11:50:00,
2013-02-15 06:51:00,32.7,30.4,30.04,SSW,207,0.0,0.0,91,0.00,,---,0.00,VWS V13.01,2013-02-15 11:51:00,
2013-02-15 06:52:00,32.7,30.4,30.04,SSW,207,0.0,0.0,91,0.00,,---,0.00,VWS V13.01,2013-02-15 11:52:00,
2013-02-15 06:54:00,32.6,30.3,30.04,SSW,207,0.0,0.0,91,0.00,,---,0.00,VWS V13.01,2013-02-15 11:54:00,
2013-02-15 06:55:00,32.6,30.3,30.04,SSW,207,0.0,0.0,91,0.00,,---,0.00,VWS V13.01,2013-02-15 11:55:00,
2013-02-15 06:56:00,32.6,30.3,30.04,SSW,207,0.0,0.0,91,0.00,,---,0.00,VWS V13.01,2013-02-15 11:56:00,
2013-02-15 06:57:00,32.6,30.3,30.04,SSW,207,0.0,0.0,91,0.00,,---,0.00,VWS V13.01,2013-02-15 11:57:00,
2013-02-15 06:59:00,32.6,30.3,30.04,SSW,207,0.0,0.0,91,0.00,,---,0.00,VWS V13.01,2013-02-15 11:59:00,
2013-02-15 07:00:00,32.6,30.3,30.03,SSW,207,0.0,0.0,91,0.00,,---,0.00,VWS V13.01,2013-02-15 12:00:00,
2013-02-15 07:01:00,32.6,30.3,30.04,SSW,207,0.0,0.0,91,0.00,,---,0.00,VWS V13.01,2013-02-15 12:01:00,
2013-02-15 07:02:00,32.6,30.0,30.04,SSW,207,0.0,0.0,90,0.00,,---,0.00,VWS V13.01,2013-02-15 12:02:00,
2013-02-15 07:04:00,32.6,30.3,30.04,SSW,207,0.0,0.0,91,0.00,,---,0.00,VWS V13.01,2013-02-15 12:04:00,
2013-02-15 07:05:00,32.6,30.3,30.04,SSW,207,0.0,0.0,91,0.00,,---,0.00,VWS V13.01,2013-02-15 12:05:00,
2013-02-15 07:07:00,32.6,30.3,30.04,SSW,207,0.0,0.0,91,0.00,,---,0.00,VWS V13.01,2013-02-15 12:07:00,
2013-02-15 07:09:00,32.6,30.3,30.04,SSW,207,0.0,0.0,91,0.00,,---,0.00,VWS V13.01,2013-02-15 12:09:00,
2013-02-15 07:10:00,32.6,30.3,30.04,SSW,207,0.0,0.0,91,0.00,,---,0.00,VWS V13.01,2013-02-15 12:10:00,
2013-02-15 07:12:00,32.6,30.3,30.04,SSW,207,0.0,0.0,91,0.00,,---,0.00,VWS V13.01,2013-02-15 12:12:00,
2013-02-15 07:14:00,32.6,30.3,30.04,SSW,207,0.0,0.0,91,0.00,,---,0.00,VWS V13.01,2013-02-15 12:14:00,
2013-02-15 07:15:00,32.6,30.3,30.04,SSW,207,0.0,0.0,91,0.00,,---,0.00,VWS V13.01,2013-02-15 12:15:00,
2013-02-15 07:17:00,32.6,30.3,30.04,SSW,207,0.0,0.0,91,0.00,,---,0.00,VWS V13.01,2013-02-15 12:17:00,
2013-02-15 07:19:00,32.6,30.3,30.04,SSW,207,0.0,0.0,91,0.00,,---,0.00,VWS V13.01,2013-02-15 12:19:00,
2013-02-15 07:20:00,32.6,30.3,30.04,SSW,207,0.0,0.0,91,0.00,,---,0.00,VWS V13.01,2013-02-15 12:20:00,
2013-02-15 07:22:00,32.6,30.3,30.04,SSW,207,0.0,0.0,91,0.00,,---,0.00,VWS V13.01,2013-02-15 12:22:00,
2013-02-15 07:24:00,32.6,30.3,30.04,SSW,207,0.0,0.0,91,0.00,,---,0.00,VWS V13.01,2013-02-15 12:24:00,
2013-02-15 07:25:00,32.6,30.3,30.04,SSW,207,0.0,0.0,91,0.00,,---,0.00,VWS V13.01,2013-02-15 12:25:00,
2013-02-15 07:27:00,32.6,30.3,30.04,SSW,207,0.0,0.0,91,0.00,,---,0.00,VWS V13.01,2013-02-15 12:27:00,
2013-02-15 07:29:00,32.6,30.3,30.04,SSW,207,0.0,0.0,91,0.00,,---,0.00,VWS V13.01,2013-02-15 12:29:00,
2013-02-15 07:30:00,32.6,30.3,30.04,SSW,207,0.0,0.0,91,0.00,,---,0.00,VWS V13.01,2013-02-15 12:30:00,
2013-02-15 07:32:00,32.6,30.3,30.04,SSW,207,0.0,0.0,91,0.00,,---,0.00,VWS V13.01,2013-02-15 12:32:00,
2013-02-15 07:34:00,32.6,30.3,30.04,SSW,207,0.0,0.0,91,0.00,,---,0.00,VWS V13.01,2013-02-15 12:34:00,
2013-02-15 07:35:00,32.6,30.3,30.05,SSW,207,0.0,0.0,91,0.00,,---,0.00,VWS V13.01,2013-02-15 12:35:00,
2013-02-15 07:37:00,32.6,30.3,30.05,SSW,207,0.0,0.0,91,0.00,,---,0.00,VWS V13.01,2013-02-15 12:37:00,
2013-02-15 07:39:00,32.6,30.3,30.05,SSW,207,0.0,0.0,91,0.00,,---,0.00,VWS V13.01,2013-02-15 12:39:00,
2013-02-15 07:40:00,32.6,30.3,30.05,SSW,207,0.0,0.0,91,0.00,,---,0.00,VWS V13.01,2013-02-15 12:40:00,
2013-02-15 07:43:00,32.6,30.5,30.05,SSW,207,0.0,0.0,92,0.00,,---,0.00,VWS V13.01,2013-02-15 12:43:00,
2013-02-15 07:45:00,32.6,30.5,30.05,SSW,207,0.0,0.0,92,0.00,,---,0.00,VWS V13.01,2013-02-15 12:45:00,
2013-02-15 07:48:00,32.6,30.5,30.05,SSW,207,0.0,0.0,92,0.00,,---,0.00,VWS V13.01,2013-02-15 12:48:00,
2013-02-15 07:50:00,32.6,30.5,30.05,SSW,207,0.0,0.0,92,0.00,,---,0.00,VWS V13.01,2013-02-15 12:50:00,
2013-02-15 07:51:00,32.6,30.5,30.05,SSW,207,0.0,0.0,92,0.00,,---,0.00,VWS V13.01,2013-02-15 12:51:00,
2013-02-15 07:53:00,32.6,30.5,30.05,SSW,207,0.0,0.0,92,0.00,,---,0.00,VWS V13.01,2013-02-15 12:53:00,
2013-02-15 07:54:00,32.6,30.5,30.05,SSW,207,0.0,0.0,92,0.00,,---,0.00,VWS V13.01,2013-02-15 12:54:00,
2013-02-15 07:55:00,32.7,30.6,30.05,SSW,207,0.0,0.0,92,0.00,,---,0.00,VWS V13.01,2013-02-15 12:55:00,
2013-02-15 07:56:00,32.7,30.6,30.05,SSW,207,0.0,0.0,92,0.00,,---,0.00,VWS V13.01,2013-02-15 12:56:00,
2013-02-15 07:58:00,32.7,30.6,30.05,SSW,207,0.0,0.0,92,0.00,,---,0.00,VWS V13.01,2013-02-15 12:58:00,
2013-02-15 07:59:00,32.8,30.7,30.05,SSW,207,0.0,0.0,92,0.00,,---,0.00,VWS V13.01,2013-02-15 12:59:00,
2013-02-15 08:00:00,32.8,30.7,30.05,SSW,207,0.0,0.0,92,0.00,,---,0.00,VWS V13.01,2013-02-15 13:00:00,
2013-02-15 08:01:00,32.8,30.7,30.05,SSW,207,0.0,0.0,92,0.00,,---,0.00,VWS V13.01,2013-02-15 13:01:00,
2013-02-15 08:03:00,32.9,30.8,30.06,SSW,207,0.0,0.0,92,0.00,,---,0.00,VWS V13.01,2013-02-15 13:03:00,
2013-02-15 08:04:00,32.9,30.8,30.06,SSW,207,0.0,0.0,92,0.00,,---,0.00,VWS V13.01,2013-02-15 13:04:00,
2013-02-15 08:05:00,32.9,30.8,30.06,SSW,207,0.0,0.0,92,0.00,,---,0.00,VWS V13.01,2013-02-15 13:05:00,
2013-02-15 08:06:00,33.0,30.9,30.06,SSW,207,0.0,0.0,92,0.00,,---,0.00,VWS V13.01,2013-02-15 13:06:00,
2013-02-15 08:08:00,33.0,31.2,30.06,SSW,207,0.0,0.0,93,0.00,,---,0.00,VWS V13.01,2013-02-15 13:08:00,
2013-02-15 08:09:00,33.1,31.3,30.06,SSW,207,0.0,0.0,93,0.00,,---,0.00,VWS V13.01,2013-02-15 13:09:00,
2013-02-15 08:10:00,33.1,31.3,30.06,SSW,207,0.0,0.0,93,0.00,,---,0.00,VWS V13.01,2013-02-15 13:10:00,
2013-02-15 08:11:00,33.2,31.4,30.06,SSW,207,0.0,0.0,93,0.00,,---,0.00,VWS V13.01,2013-02-15 13:11:00,
2013-02-15 08:13:00,33.3,31.5,30.06,SSW,207,0.0,0.0,93,0.00,,---,0.00,VWS V13.01,2013-02-15 13:13:00,
2013-02-15 08:14:00,33.4,31.6,30.06,SSW,207,0.0,0.0,93,0.00,,---,0.00,VWS V13.01,2013-02-15 13:14:00,
2013-02-15 08:15:00,33.4,31.6,30.06,SSW,207,0.0,0.0,93,0.00,,---,0.00,VWS V13.01,2013-02-15 13:15:00,
2013-02-15 08:16:00,33.5,31.7,30.06,SSW,207,0.0,0.0,93,0.00,,---,0.00,VWS V13.01,2013-02-15 13:16:00,
2013-02-15 08:18:00,33.7,31.9,30.06,SSW,207,0.0,0.0,93,0.00,,---,0.00,VWS V13.01,2013-02-15 13:18:00,
2013-02-15 08:19:00,33.7,31.9,30.06,SSW,207,0.0,0.0,93,0.00,,---,0.00,VWS V13.01,2013-02-15 13:19:00,
2013-02-15 08:20:00,33.8,32.0,30.06,SSW,207,0.0,0.0,93,0.00,,---,0.00,VWS V13.01,2013-02-15 13:20:00,
2013-02-15 08:22:00,34.0,32.5,30.06,SSW,207,0.0,0.0,94,0.00,,---,0.00,VWS V13.01,2013-02-15 13:22:00,
2013-02-15 08:23:00,34.2,32.7,30.06,SSW,207,0.0,0.0,94,0.00,,---,0.00,VWS V13.01,2013-02-15 13:23:00,
2013-02-15 08:24:00,34.4,32.9,30.06,SSW,207,0.0,0.0,94,0.00,,---,0.00,VWS V13.01,2013-02-15 13:24:00,
2013-02-15 08:25:00,34.4,32.9,30.06,SSW,207,0.0,0.0,94,0.00,,---,0.00,VWS V13.01,2013-02-15 13:25:00,
2013-02-15 08:27:00,34.5,33.0,30.06,SSW,207,0.0,0.0,94,0.00,,---,0.00,VWS V13.01,2013-02-15 13:27:00,
2013-02-15 08:28:00,34.7,33.2,30.06,SSW,207,0.0,0.0,94,0.00,,---,0.00,VWS V13.01,2013-02-15 13:28:00,
2013-02-15 08:29:00,34.8,33.2,30.06,SSW,207,0.0,0.0,94,0.00,,---,0.00,VWS V13.01,2013-02-15 13:29:00,
2013-02-15 08:30:00,35.0,33.5,30.06,SSW,207,0.0,0.0,94,0.00,,---,0.00,VWS V13.01,2013-02-15 13:30:00,
2013-02-15 08:32:00,35.3,33.8,30.06,SSW,207,0.0,0.0,94,0.00,,---,0.00,VWS V13.01,2013-02-15 13:32:00,
2013-02-15 08:34:00,35.4,33.8,30.06,SSW,207,0.0,0.0,94,0.00,,---,0.00,VWS V13.01,2013-02-15 13:34:00,
2013-02-15 08:35:00,35.6,34.3,30.06,SSW,207,0.0,0.0,95,0.00,,---,0.00,VWS V13.01,2013-02-15 13:35:00,
2013-02-15 08:37:00,35.9,34.6,30.06,SSW,207,0.0,0.0,95,0.00,,---,0.00,VWS V13.01,2013-02-15 13:37:00,
2013-02-15 08:39:00,36.1,34.8,30.06,SSW,207,0.0,0.0,95,0.00,,---,0.00,VWS V13.01,2013-02-15 13:39:00,
2013-02-15 08:40:00,36.3,35.0,30.06,SSW,207,0.0,0.0,95,0.00,,---,0.00,VWS V13.01,2013-02-15 13:40:00,
2013-02-15 08:42:00,36.7,35.4,30.06,SSW,207,0.0,0.0,95,0.00,,---,0.00,VWS V13.01,2013-02-15 13:42:00,
2013-02-15 08:44:00,36.9,35.6,30.06,SSW,207,0.0,0.0,95,0.00,,---,0.00,VWS V13.01,2013-02-15 13:44:00,
2013-02-15 08:45:00,37.2,35.9,30.06,SSW,207,0.0,0.0,95,0.00,,---,0.00,VWS V13.01,2013-02-15 13:45:00,
2013-02-15 08:48:00,37.7,36.7,30.06,SSW,207,0.0,1.0,96,0.00,,---,0.00,VWS V13.01,2013-02-15 13:48:00,
2013-02-15 08:49:00,37.9,36.6,30.06,SSW,207,0.0,1.0,95,0.00,,---,0.00,VWS V13.01,2013-02-15 13:49:00,
2013-02-15 08:50:00,38.1,36.8,30.06,SSW,207,0.0,1.0,95,0.00,,---,0.00,VWS V13.01,2013-02-15 13:50:00,
2013-02-15 08:53:00,38.6,37.6,30.06,SSW,207,0.0,3.0,96,0.00,,---,0.00,VWS V13.01,2013-02-15 13:53:00,
2013-02-15 08:54:00,38.8,37.8,30.06,SSW,207,0.0,3.0,96,0.00,,---,0.00,VWS V13.01,2013-02-15 13:54:00,
2013-02-15 08:55:00,38.9,37.9,30.06,SSW,207,0.0,3.0,96,0.00,,---,0.00,VWS V13.01,2013-02-15 13:55:00,
2013-02-15 08:58:00,39.4,38.4,30.06,SSW,207,0.0,3.0,96,0.00,,---,0.00,VWS V13.01,2013-02-15 13:58:00,
2013-02-15 08:59:00,39.6,38.6,30.06,SSW,207,0.0,3.0,96,0.00,,---,0.00,VWS V13.01,2013-02-15 13:59:00,
2013-02-15 09:00:00,39.7,38.7,30.06,SSW,207,0.0,3.0,96,0.00,,---,0.00,VWS V13.01,2013-02-15 14:00:00,
2013-02-15 09:03:00,40.1,39.0,30.06,SSW,207,0.0,4.0,96,0.00,,---,0.00,VWS V13.01,2013-02-15 14:03:00,
2013-02-15 09:05:00,40.3,39.2,30.06,SSW,207,0.0,4.0,96,0.00,,---,0.00,VWS V13.01,2013-02-15 14:05:00,
2013-02-15 09:08:00,40.7,39.7,30.06,SSW,207,0.0,4.0,96,0.00,,---,0.00,VWS V13.01,2013-02-15 14:08:00,
2013-02-15 09:10:00,41.0,39.7,30.06,SSW,207,0.0,4.0,95,0.00,,---,0.00,VWS V13.01,2013-02-15 14:10:00,
2013-02-15 09:13:00,41.3,40.2,30.06,SSW,207,2.0,4.0,96,0.00,,---,0.00,VWS V13.01,2013-02-15 14:13:00,
2013-02-15 09:15:00,41.5,40.2,30.06,SSW,207,2.0,4.0,95,0.00,,---,0.00,VWS V13.01,2013-02-15 14:15:00,
2013-02-15 09:16:00,41.6,40.3,30.06,SSW,207,2.0,4.0,95,0.00,,---,0.00,VWS V13.01,2013-02-15 14:16:00,
2013-02-15 09:18:00,42.0,40.7,30.07,SSW,207,0.0,4.0,95,0.00,,---,0.00,VWS V13.01,2013-02-15 14:18:00,
2013-02-15 09:20:00,42.2,40.9,30.06,SSW,207,0.0,4.0,95,0.00,,---,0.00,VWS V13.01,2013-02-15 14:20:00,
2013-02-15 09:21:00,42.3,41.0,30.06,SSW,207,0.0,4.0,95,0.00,,---,0.00,VWS V13.01,2013-02-15 14:21:00,
2013-02-15 09:23:00,42.7,41.4,30.06,SSW,207,0.0,4.0,95,0.00,,---,0.00,VWS V13.01,2013-02-15 14:23:00,
2013-02-15 09:25:00,42.9,41.6,30.06,SSW,207,0.0,4.0,95,0.00,,---,0.00,VWS V13.01,2013-02-15 14:25:00,
2013-02-15 09:26:00,43.0,41.4,30.06,SSW,207,0.0,4.0,94,0.00,,---,0.00,VWS V13.01,2013-02-15 14:26:00,
2013-02-15 09:28:00,43.3,41.7,30.06,SSW,207,1.0,4.0,94,0.00,,---,0.00,VWS V13.01,2013-02-15 14:28:00,
2013-02-15 09:30:00,43.7,41.8,30.06,SSW,207,0.0,4.0,93,0.00,,---,0.00,VWS V13.01,2013-02-15 14:30:00,
2013-02-15 09:31:00,43.7,41.8,30.06,SSW,207,0.0,4.0,93,0.00,,---,0.00,VWS V13.01,2013-02-15 14:31:00,
2013-02-15 09:33:00,44.1,41.7,30.06,SSW,207,0.0,3.0,91,0.00,,---,0.00,VWS V13.01,2013-02-15 14:33:00,
2013-02-15 09:35:00,44.5,42.0,30.06,SSW,207,0.0,3.0,91,0.00,,---,0.00,VWS V13.01,2013-02-15 14:35:00,
2013-02-15 09:36:00,44.5,41.8,30.06,SSW,207,0.0,3.0,90,0.00,,---,0.00,VWS V13.01,2013-02-15 14:36:00,
2013-02-15 09:38:00,45.0,41.7,30.06,SSW,207,0.0,3.0,88,0.00,,---,0.00,VWS V13.01,2013-02-15 14:38:00,
2013-02-15 09:40:00,45.3,41.7,30.06,SSW,207,3.0,4.0,87,0.00,,---,0.00,VWS V13.01,2013-02-15 14:40:00,
2013-02-15 09:41:00,45.3,41.4,30.06,SSW,207,1.0,4.0,86,0.00,,---,0.00,VWS V13.01,2013-02-15 14:41:00,
2013-02-15 09:43:00,45.8,41.2,30.06,SSW,207,0.0,4.0,84,0.00,,---,0.00,VWS V13.01,2013-02-15 14:43:00,
2013-02-15 09:45:00,46.2,41.3,30.06,SSW,207,0.0,4.0,83,0.00,,---,0.00,VWS V13.01,2013-02-15 14:45:00,
2013-02-15 09:46:00,46.3,41.4,30.06,SSW,207,0.0,4.0,83,0.00,,---,0.00,VWS V13.01,2013-02-15 14:46:00,
2013-02-15 09:49:00,46.7,41.2,30.06,SSW,207,2.0,4.0,81,0.00,,---,0.00,VWS V13.01,2013-02-15 14:49:00,
2013-02-15 09:51:00,47.2,41.0,30.06,SSW,207,0.0,4.0,79,0.00,,---,0.00,VWS V13.01,2013-02-15 14:51:00,
2013-02-15 09:54:00,47.8,40.6,30.06,SSW,207,0.0,4.0,76,0.00,,---,0.00,VWS V13.01,2013-02-15 14:54:00,
2013-02-15 09:56:00,48.1,40.2,30.06,SSW,207,0.0,4.0,74,0.00,,---,0.00,VWS V13.01,2013-02-15 14:56:00,
2013-02-15 09:59:00,48.7,40.5,30.06,SSW,207,0.0,4.0,73,0.00,,---,0.00,VWS V13.01,2013-02-15 14:59:00,
2013-02-15 10:01:00,49.0,40.0,30.06,SSW,207,0.0,4.0,71,0.00,,---,0.00,VWS V13.01,2013-02-15 15:01:00,
2013-02-15 10:02:00,49.4,40.0,30.06,SSW,207,0.0,1.0,70,0.00,,---,0.00,VWS V13.01,2013-02-15 15:02:00,
2013-02-15 10:04:00,49.6,39.9,30.06,SSW,207,1.0,4.0,69,0.00,,---,0.00,VWS V13.01,2013-02-15 15:04:00,
2013-02-15 10:06:00,50.0,39.9,30.06,SSW,207,0.0,4.0,68,0.00,,---,0.00,VWS V13.01,2013-02-15 15:06:00,
2013-02-15 10:07:00,50.3,39.8,30.06,SSW,207,2.0,5.0,67,0.00,,---,0.00,VWS V13.01,2013-02-15 15:07:00,
2013-02-15 10:09:00,50.6,39.7,30.06,SSW,207,3.0,5.0,66,0.00,,---,0.00,VWS V13.01,2013-02-15 15:09:00,
2013-02-15 10:11:00,50.9,39.6,30.06,SSW,207,1.0,5.0,65,0.00,,---,0.00,VWS V13.01,2013-02-15 15:11:00,
2013-02-15 10:12:00,51.2,39.5,30.06,SSW,207,1.0,5.0,64,0.00,,---,0.00,VWS V13.01,2013-02-15 15:12:00,
2013-02-15 10:14:00,51.4,39.7,30.06,SSW,207,0.0,5.0,64,0.00,,---,0.00,VWS V13.01,2013-02-15 15:14:00,
2013-02-15 10:16:00,51.7,39.5,30.05,SSW,207,1.0,5.0,63,0.00,,---,0.00,VWS V13.01,2013-02-15 15:16:00,
2013-02-15 10:18:00,52.0,39.4,30.05,SSW,207,1.0,5.0,62,0.00,,---,0.00,VWS V13.01,2013-02-15 15:18:00,
2013-02-15 10:19:00,52.2,39.6,30.05,SSW,207,1.0,5.0,62,0.00,,---,0.00,VWS V13.01,2013-02-15 15:19:00,
2013-02-15 10:21:00,52.5,39.9,30.06,SSW,207,0.0,6.0,62,0.00,,---,0.00,VWS V13.01,2013-02-15 15:21:00,
2013-02-15 10:23:00,52.7,39.6,30.06,WSW,244,4.0,7.0,61,0.00,,---,0.00,VWS V13.01,2013-02-15 15:23:00,
2013-02-15 10:24:00,52.9,39.4,30.06,WSW,244,4.0,7.0,60,0.00,,---,0.00,VWS V13.01,2013-02-15 15:24:00,
2013-02-15 10:26:00,53.1,39.6,30.05,WSW,247,0.0,7.0,60,0.00,,---,0.00,VWS V13.01,2013-02-15 15:26:00,
2013-02-15 10:28:00,53.3,39.3,30.05,WSW,253,0.0,7.0,59,0.00,,---,0.00,VWS V13.01,2013-02-15 15:28:00,
2013-02-15 10:29:00,53.4,39.5,30.05,WSW,254,0.0,7.0,59,0.00,,---,0.00,VWS V13.01,2013-02-15 15:29:00,
2013-02-15 10:31:00,53.6,39.6,30.05,WSW,257,5.0,5.0,59,0.00,,---,0.00,VWS V13.01,2013-02-15 15:31:00,
2013-02-15 10:32:00,53.6,39.2,30.05,WSW,257,0.0,5.0,58,0.00,,---,0.00,VWS V13.01,2013-02-15 15:32:00,
2013-02-15 10:33:00,53.8,39.4,30.05,WSW,257,0.0,5.0,58,0.00,,---,0.00,VWS V13.01,2013-02-15 15:33:00,
2013-02-15 10:34:00,53.9,39.9,30.05,WSW,257,4.0,5.0,59,0.00,,---,0.00,VWS V13.01,2013-02-15 15:34:00,
2013-02-15 10:36:00,54.0,39.1,30.05,WSW,238,4.0,6.0,57,0.00,,---,0.00,VWS V13.01,2013-02-15 15:36:00,
2013-02-15 10:37:00,54.1,39.2,30.05,WSW,240,3.0,6.0,57,0.00,,---,0.00,VWS V13.01,2013-02-15 15:37:00,
2013-02-15 10:38:00,54.2,38.9,30.05,WSW,245,2.0,6.0,56,0.00,,---,0.00,VWS V13.01,2013-02-15 15:38:00,
2013-02-15 10:39:00,54.2,39.3,30.05,WSW,244,0.0,6.0,57,0.00,,---,0.00,VWS V13.01,2013-02-15 15:39:00,
2013-02-15 10:41:00,54.4,39.5,30.05,SW,229,0.0,6.0,57,0.00,,---,0.00,VWS V13.01,2013-02-15 15:41:00,
2013-02-15 10:42:00,54.4,39.5,30.05,SW,229,0.0,6.0,57,0.00,,---,0.00,VWS V13.01,2013-02-15 15:42:00,
2013-02-15 10:43:00,54.5,39.1,30.05,WSW,250,2.0,7.0,56,0.00,,---,0.00,VWS V13.01,2013-02-15 15:43:00,
2013-02-15 10:45:00,54.6,39.2,30.05,WSW,248,4.0,7.0,56,0.00,,---,0.00,VWS V13.01,2013-02-15 15:45:00,
2013-02-15 10:46:00,54.7,38.9,30.05,WSW,249,1.0,7.0,55,0.00,,---,0.00,VWS V13.01,2013-02-15 15:46:00,
2013-02-15 10:47:00,54.8,39.0,30.05,WSW,249,3.0,7.0,55,0.00,,---,0.00,VWS V13.01,2013-02-15 15:47:00,
2013-02-15 10:48:00,54.9,39.5,30.05,WSW,249,2.0,7.0,56,0.00,,---,0.00,VWS V13.01,2013-02-15 15:48:00,
2013-02-15 10:50:00,55.0,39.6,30.05,WSW,249,0.0,7.0,56,0.00,,---,0.00,VWS V13.01,2013-02-15 15:50:00,
2013-02-15 10:51:00,55.1,39.7,30.05,WSW,250,0.0,7.0,56,0.00,,---,0.00,VWS V13.01,2013-02-15 15:51:00,
2013-02-15 10:52:00,55.1,39.7,30.04,WSW,250,0.0,7.0,56,0.00,,---,0.00,VWS V13.01,2013-02-15 15:52:00,
2013-02-15 10:53:00,55.2,39.8,30.04,WSW,250,1.0,7.0,56,0.00,,---,0.00,VWS V13.01,2013-02-15 15:53:00,
2013-02-15 10:55:00,55.4,40.0,30.04,WSW,249,0.0,7.0,56,0.00,,---,0.00,VWS V13.01,2013-02-15 15:55:00,
2013-02-15 10:56:00,55.5,40.1,30.04,WSW,250,0.0,7.0,56,0.00,,---,0.00,VWS V13.01,2013-02-15 15:56:00,
2013-02-15 10:57:00,55.5,40.1,30.04,WSW,250,0.0,7.0,56,0.00,,---,0.00,VWS V13.01,2013-02-15 15:57:00,
2013-02-15 10:58:00,55.7,39.8,30.04,WSW,249,1.0,7.0,55,0.00,,---,0.00,VWS V13.01,2013-02-15 15:58:00,
2013-02-15 11:00:00,55.8,39.4,30.04,West,259,1.0,7.0,54,0.00,,---,0.00,VWS V13.01,2013-02-15 16:00:00,
2013-02-15 11:01:00,55.9,39.5,30.04,WSW,254,6.0,6.0,54,0.00,,---,0.00,VWS V13.01,2013-02-15 16:01:00,
2013-02-15 11:02:00,56.0,39.6,30.04,WSW,256,0.0,7.0,54,0.00,,---,0.00,VWS V13.01,2013-02-15 16:02:00,
2013-02-15 11:03:00,56.0,39.6,30.04,WSW,256,1.0,7.0,54,0.00,,---,0.00,VWS V13.01,2013-02-15 16:03:00,
2013-02-15 11:05:00,56.2,39.8,30.04,WSW,256,1.0,7.0,54,0.00,,---,0.00,VWS V13.01,2013-02-15 16:05:00,
2013-02-15 11:06:00,56.3,39.4,30.04,WSW,256,0.0,7.0,53,0.00,,---,0.00,VWS V13.01,2013-02-15 16:06:00,
2013-02-15 11:07:00,56.4,39.5,30.04,WSW,256,1.0,7.0,53,0.00,,---,0.00,VWS V13.01,2013-02-15 16:07:00,
2013-02-15 11:08:00,56.4,39.5,30.04,WSW,256,0.0,7.0,53,0.00,,---,0.00,VWS V13.01,2013-02-15 16:08:00,
2013-02-15 11:10:00,56.7,39.8,30.04,WSW,256,0.0,7.0,53,0.00,,---,0.00,VWS V13.01,2013-02-15 16:10:00,
2013-02-15 11:12:00,56.8,40.3,30.04,WSW,256,0.0,7.0,54,0.00,,---,0.00,VWS V13.01,2013-02-15 16:12:00,
2013-02-15 11:14:00,56.9,40.0,30.04,WSW,256,0.0,7.0,53,0.00,,---,0.00,VWS V13.01,2013-02-15 16:14:00,
2013-02-15 11:15:00,57.2,39.8,30.04,WSW,254,1.0,7.0,52,0.00,,---,0.00,VWS V13.01,2013-02-15 16:15:00,
2013-02-15 11:17:00,57.2,39.2,30.04,WSW,254,0.0,7.0,51,0.00,,---,0.00,VWS V13.01,2013-02-15 16:17:00,
2013-02-15 11:18:00,57.4,39.4,30.03,WSW,254,0.0,7.0,51,0.00,,---,0.00,VWS V13.01,2013-02-15 16:18:00,
2013-02-15 11:19:00,57.4,39.4,30.03,WSW,254,0.0,7.0,51,0.00,,---,0.00,VWS V13.01,2013-02-15 16:19:00,
2013-02-15 11:20:00,57.6,39.6,30.03,WSW,253,1.0,7.0,51,0.00,,---,0.00,VWS V13.01,2013-02-15 16:20:00,
2013-02-15 11:22:00,57.7,39.7,30.03,WSW,253,0.0,7.0,51,0.00,,---,0.00,VWS V13.01,2013-02-15 16:22:00,
2013-02-15 11:23:00,57.8,39.8,30.03,WSW,253,0.0,7.0,51,0.00,,---,0.00,VWS V13.01,2013-02-15 16:23:00,
2013-02-15 11:24:00,57.9,39.9,30.03,WSW,241,2.0,7.0,51,0.00,,---,0.00,VWS V13.01,2013-02-15 16:24:00,
2013-02-15 11:25:00,58.1,39.6,30.03,WSW,241,0.0,7.0,50,0.00,,---,0.00,VWS V13.01,2013-02-15 16:25:00,
2013-02-15 11:27:00,58.2,39.7,30.03,South,175,3.0,7.0,50,0.00,,---,0.00,VWS V13.01,2013-02-15 16:27:00,
2013-02-15 11:28:00,58.4,39.8,30.03,South,188,0.0,10.0,50,0.00,,---,0.00,VWS V13.01,2013-02-15 16:28:00,
2013-02-15 11:29:00,58.5,39.9,30.03,South,187,3.0,10.0,50,0.00,,---,0.00,VWS V13.01,2013-02-15 16:29:00,
2013-02-15 11:31:00,58.7,39.1,30.03,SSW,209,4.0,10.0,48,0.00,,---,0.00,VWS V13.01,2013-02-15 16:31:00,
2013-02-15 11:32:00,58.9,39.8,30.03,WSW,248,3.0,7.0,49,0.00,,---,0.00,VWS V13.01,2013-02-15 16:32:00,
2013-02-15 11:33:00,59.0,39.9,30.03,WSW,248,0.0,7.0,49,0.00,,---,0.00,VWS V13.01,2013-02-15 16:33:00,
2013-02-15 11:34:00,59.0,40.4,30.03,South,186,2.0,7.0,50,0.00,,---,0.00,VWS V13.01,2013-02-15 16:34:00,
2013-02-15 11:36:00,59.0,38.8,30.03,SSW,211,3.0,9.0,47,0.00,,---,0.00,VWS V13.01,2013-02-15 16:36:00,
2013-02-15 11:37:00,59.0,38.8,30.03,SSW,205,0.0,9.0,47,0.00,,---,0.00,VWS V13.01,2013-02-15 16:37:00,
2013-02-15 11:38:00,59.0,38.8,30.03,SSE,155,2.0,9.0,47,0.00,,---,0.00,VWS V13.01,2013-02-15 16:38:00,
2013-02-15 11:39:00,59.1,38.9,30.03,SSE,153,0.0,9.0,47,0.00,,---,0.00,VWS V13.01,2013-02-15 16:39:00,
2013-02-15 11:41:00,59.3,39.1,30.02,SSW,199,3.0,9.0,47,0.00,,---,0.00,VWS V13.01,2013-02-15 16:41:00,
2013-02-15 11:42:00,59.4,39.2,30.02,SSW,202,2.0,9.0,47,0.00,,---,0.00,VWS V13.01,2013-02-15 16:42:00,
2013-02-15 11:43:00,59.5,38.7,30.02,SSW,202,1.0,9.0,46,0.00,,---,0.00,VWS V13.01,2013-02-15 16:43:00,
2013-02-15 11:44:00,59.5,38.7,30.02,SSW,202,0.0,9.0,46,0.00,,---,0.00,VWS V13.01,2013-02-15 16:44:00,
2013-02-15 11:46:00,59.6,38.8,30.02,WNW,296,0.0,9.0,46,0.00,,---,0.00,VWS V13.01,2013-02-15 16:46:00,
2013-02-15 11:47:00,59.7,38.3,30.02,SW,227,4.0,9.0,45,0.00,,---,0.00,VWS V13.01,2013-02-15 16:47:00,
2013-02-15 11:48:00,59.8,39.0,30.02,SSW,205,0.0,9.0,46,0.00,,---,0.00,VWS V13.01,2013-02-15 16:48:00,
2013-02-15 11:49:00,59.8,38.4,30.02,SSW,205,0.0,9.0,45,0.00,,---,0.00,VWS V13.01,2013-02-15 16:49:00,
2013-02-15 11:51:00,59.9,38.0,30.02,South,182,0.0,10.0,44,0.00,,---,0.00,VWS V13.01,2013-02-15 16:51:00,
2013-02-15 11:53:00,60.0,38.0,30.02,SSW,195,0.0,10.0,44,0.00,,---,0.00,VWS V13.01,2013-02-15 16:53:00,
2013-02-15 11:54:00,60.1,38.1,30.02,South,186,0.0,10.0,44,0.00,,---,0.00,VWS V13.01,2013-02-15 16:54:00,
2013-02-15 11:56:00,60.2,37.6,30.02,SSW,199,3.0,10.0,43,0.00,,---,0.00,VWS V13.01,2013-02-15 16:56:00,
2013-02-15 11:58:00,60.3,37.7,30.02,SSW,198,6.0,10.0,43,0.00,,---,0.00,VWS V13.01,2013-02-15 16:58:00,
2013-02-15 11:59:00,60.4,36.6,30.02,WSW,245,2.0,10.0,41,0.00,,---,0.00,VWS V13.01,2013-02-15 16:59:00,
2013-02-15 12:01:00,60.4,37.2,30.02,WSW,252,0.0,2.0,42,0.00,,---,0.00,VWS V13.01,2013-02-15 17:01:00,
2013-02-15 12:03:00,60.5,36.7,30.02,WSW,252,1.0,5.0,41,0.00,,---,0.00,VWS V13.01,2013-02-15 17:03:00,
2013-02-15 12:04:00,60.5,36.7,30.02,SW,236,0.0,7.0,41,0.00,,---,0.00,VWS V13.01,2013-02-15 17:04:00,
2013-02-15 12:06:00,60.6,36.8,30.01,West,259,0.0,7.0,41,0.00,,---,0.00,VWS V13.01,2013-02-15 17:06:00,
2013-02-15 12:08:00,60.6,36.2,30.01,WSW,256,0.0,7.0,40,0.00,,---,0.00,VWS V13.01,2013-02-15 17:08:00,
2013-02-15 12:09:00,60.7,37.5,30.01,WSW,257,3.0,7.0,42,0.00,,---,0.00,VWS V13.01,2013-02-15 17:09:00,
2013-02-15 12:11:00,60.7,37.5,30.01,West,262,0.0,7.0,42,0.00,,---,0.00,VWS V13.01,2013-02-15 17:11:00,
2013-02-15 12:13:00,60.7,37.5,30.01,West,261,2.0,7.0,42,0.00,,---,0.00,VWS V13.01,2013-02-15 17:13:00,
2013-02-15 12:14:00,60.8,37.6,30.01,West,275,0.0,7.0,42,0.00,,---,0.00,VWS V13.01,2013-02-15 17:14:00,
2013-02-15 12:16:00,60.9,37.7,30.01,West,275,0.0,7.0,42,0.00,,---,0.00,VWS V13.01,2013-02-15 17:16:00,
2013-02-15 12:18:00,61.0,38.4,30.01,West,260,4.0,7.0,43,0.00,,---,0.00,VWS V13.01,2013-02-15 17:18:00,
2013-02-15 12:19:00,61.1,38.5,30.01,SSW,213,2.0,7.0,43,0.00,,---,0.00,VWS V13.01,2013-02-15 17:19:00,
2013-02-15 12:21:00,61.1,36.6,30.01,West,259,0.0,10.0,40,0.00,,---,0.00,VWS V13.01,2013-02-15 17:21:00,
2013-02-15 12:23:00,61.1,35.3,30.00,West,259,0.0,10.0,38,0.00,,---,0.00,VWS V13.01,2013-02-15 17:23:00,
2013-02-15 12:24:00,61.1,36.0,30.00,WSW,257,0.0,10.0,39,0.00,,---,0.00,VWS V13.01,2013-02-15 17:24:00,
2013-02-15 12:27:00,61.3,34.8,30.00,SW,227,0.0,10.0,37,0.00,,---,0.00,VWS V13.01,2013-02-15 17:27:00,
2013-02-15 12:28:00,61.3,34.8,30.00,SSW,199,6.0,13.0,37,0.00,,---,0.00,VWS V13.01,2013-02-15 17:28:00,
2013-02-15 12:29:00,61.4,34.9,30.00,SSE,162,0.0,13.0,37,0.00,,---,0.00,VWS V13.01,2013-02-15 17:29:00,
2013-02-15 12:30:00,61.4,34.9,30.00,South,190,5.0,13.0,37,0.00,,---,0.00,VWS V13.01,2013-02-15 17:30:00,
2013-02-15 12:32:00,61.4,34.2,30.00,WSW,253,0.0,9.0,36,0.00,,---,0.00,VWS V13.01,2013-02-15 17:32:00,
2013-02-15 12:33:00,61.4,34.9,30.00,SSW,196,0.0,9.0,37,0.00,,---,0.00,VWS V13.01,2013-02-15 17:33:00,
2013-02-15 12:34:00,61.5,35.7,30.00,South,176,1.0,9.0,38,0.00,,---,0.00,VWS V13.01,2013-02-15 17:34:00,
2013-02-15 12:35:00,61.5,35.7,30.00,SSW,198,5.0,9.0,38,0.00,,---,0.00,VWS V13.01,2013-02-15 17:35:00,
2013-02-15 12:37:00,61.6,35.1,30.00,SE,146,5.0,10.0,37,0.00,,---,0.00,VWS V13.01,2013-02-15 17:37:00,
2013-02-15 12:39:00,61.6,35.1,30.00,South,173,0.0,10.0,37,0.00,,---,0.00,VWS V13.01,2013-02-15 17:39:00,
2013-02-15 12:40:00,61.6,35.1,30.00,South,188,4.0,10.0,37,0.00,,---,0.00,VWS V13.01,2013-02-15 17:40:00,
2013-02-15 12:42:00,61.7,36.5,29.99,SSW,207,4.0,12.0,39,0.00,,---,0.00,VWS V13.01,2013-02-15 17:42:00,
2013-02-15 12:44:00,61.7,35.9,29.99,WSW,242,0.0,12.0,38,0.00,,---,0.00,VWS V13.01,2013-02-15 17:44:00,
2013-02-15 12:45:00,61.7,35.2,29.99,WSW,246,0.0,12.0,37,0.00,,---,0.00,VWS V13.01,2013-02-15 17:45:00,
2013-02-15 12:47:00,61.8,37.2,29.99,SSE,161,7.0,12.0,40,0.00,,---,0.00,VWS V13.01,2013-02-15 17:47:00,
2013-02-15 12:49:00,61.8,35.3,29.99,SW,233,10.0,12.0,37,0.00,,---,0.00,VWS V13.01,2013-02-15 17:49:00,
2013-02-15 12:50:00,61.9,36.0,29.99,SSW,202,0.0,12.0,38,0.00,,---,0.00,VWS V13.01,2013-02-15 17:50:00,
2013-02-15 12:52:00,62.0,35.5,29.99,SSW,203,0.0,12.0,37,0.00,,---,0.00,VWS V13.01,2013-02-15 17:52:00,
2013-02-15 12:54:00,62.0,35.5,29.99,SW,215,2.0,12.0,37,0.00,,---,0.00,VWS V13.01,2013-02-15 17:54:00,
2013-02-15 12:55:00,62.0,35.5,29.99,WSW,245,0.0,12.0,37,0.00,,---,0.00,VWS V13.01,2013-02-15 17:55:00,
2013-02-15 12:57:00,62.1,34.8,29.99,WSW,246,0.0,12.0,36,0.00,,---,0.00,VWS V13.01,2013-02-15 17:57:00,
2013-02-15 12:59:00,62.1,34.8,29.99,WNW,292,1.0,12.0,36,0.00,,---,0.00,VWS V13.01,2013-02-15 17:59:00,
2013-02-15 13:00:00,62.1,34.8,29.99,NW,322,2.0,12.0,36,0.00,,---,0.00,VWS V13.01,2013-02-15 18:00:00,
2013-02-15 13:02:00,62.1,34.8,29.99,SW,233,6.0,12.0,36,0.00,,---,0.00,VWS V13.01,2013-02-15 18:02:00,
2013-02-15 13:04:00,62.1,35.5,29.98,WSW,253,1.0,12.0,37,0.00,,---,0.00,VWS V13.01,2013-02-15 18:04:00,
2013-02-15 13:05:00,62.1,35.5,29.98,WNW,287,0.0,12.0,37,0.00,,---,0.00,VWS V13.01,2013-02-15 18:05:00,
2013-02-15 13:08:00,62.2,35.6,29.98,SE,135,6.0,12.0,37,0.00,,---,0.00,VWS V13.01,2013-02-15 18:08:00,
2013-02-15 13:09:00,62.2,35.6,29.98,SSW,207,5.0,12.0,37,0.00,,---,0.00,VWS V13.01,2013-02-15 18:09:00,
2013-02-15 13:11:00,62.2,34.9,29.98,West,260,3.0,12.0,36,0.00,,---,0.00,VWS V13.01,2013-02-15 18:11:00,
2013-02-15 13:13:00,62.2,35.6,29.98,WSW,252,0.0,12.0,37,0.00,,---,0.00,VWS V13.01,2013-02-15 18:13:00,
2013-02-15 13:14:00,62.2,34.9,29.98,WSW,240,0.0,12.0,36,0.00,,---,0.00,VWS V13.01,2013-02-15 18:14:00,
2013-02-15 13:16:00,62.2,34.9,29.98,WSW,239,3.0,13.0,36,0.00,,---,0.00,VWS V13.01,2013-02-15 18:16:00,
2013-02-15 13:18:00,62.3,35.7,29.98,WSW,244,1.0,13.0,37,0.00,,---,0.00,VWS V13.01,2013-02-15 18:18:00,
2013-02-15 13:19:00,62.3,35.0,29.97,West,267,0.0,13.0,36,0.00,,---,0.00,VWS V13.01,2013-02-15 18:19:00,
2013-02-15 13:20:00,62.3,35.0,29.97,West,267,0.0,13.0,36,0.00,,---,0.00,VWS V13.01,2013-02-15 18:20:00,
2013-02-15 13:21:00,62.3,35.0,29.97,NW,315,5.0,13.0,36,0.00,,---,0.00,VWS V13.01,2013-02-15 18:21:00,
2013-02-15 13:23:00,62.3,35.0,29.97,SW,236,2.0,13.0,36,0.00,,---,0.00,VWS V13.01,2013-02-15 18:23:00,
2013-02-15 13:24:00,62.3,35.0,29.97,West,273,0.0,13.0,36,0.00,,---,0.00,VWS V13.01,2013-02-15 18:24:00,
2013-02-15 13:25:00,62.3,35.7,29.97,South,191,9.0,13.0,37,0.00,,---,0.00,VWS V13.01,2013-02-15 18:25:00,
2013-02-15 13:26:00,62.3,35.7,29.97,WSW,244,6.0,13.0,37,0.00,,---,0.00,VWS V13.01,2013-02-15 18:26:00,
2013-02-15 13:28:00,62.4,36.5,29.97,SSW,196,1.0,13.0,38,0.00,,---,0.00,VWS V13.01,2013-02-15 18:28:00,
2013-02-15 13:30:00,62.5,35.9,29.97,South,188,1.0,13.0,37,0.00,,---,0.00,VWS V13.01,2013-02-15 18:30:00,
2013-02-15 13:31:00,62.5,35.9,29.97,SSW,208,4.0,13.0,37,0.00,,---,0.00,VWS V13.01,2013-02-15 18:31:00,
2013-02-15 13:33:00,62.6,35.3,29.97,SSW,210,0.0,9.0,36,0.00,,---,0.00,VWS V13.01,2013-02-15 18:33:00,
2013-02-15 13:35:00,62.6,34.6,29.97,SW,216,3.0,12.0,35,0.00,,---,0.00,VWS V13.01,2013-02-15 18:35:00,
2013-02-15 13:36:00,62.6,36.0,29.97,SW,216,6.0,12.0,37,0.00,,---,0.00,VWS V13.01,2013-02-15 18:36:00,
2013-02-15 13:38:00,62.7,36.1,29.96,WSW,252,0.0,12.0,37,0.00,,---,0.00,VWS V13.01,2013-02-15 18:38:00,
2013-02-15 13:40:00,62.8,35.5,29.96,SW,226,0.0,12.0,36,0.00,,---,0.00,VWS V13.01,2013-02-15 18:40:00,
2013-02-15 13:41:00,62.8,35.5,29.96,SW,227,5.0,14.0,36,0.00,,---,0.00,VWS V13.01,2013-02-15 18:41:00,
2013-02-15 13:43:00,62.9,35.6,29.96,SW,236,7.0,14.0,36,0.00,,---,0.00,VWS V13.01,2013-02-15 18:43:00,
2013-02-15 13:45:00,63.0,34.9,29.96,WSW,250,4.0,14.0,35,0.00,,---,0.00,VWS V13.01,2013-02-15 18:45:00,
2013-02-15 13:46:00,63.0,34.9,29.96,SW,231,3.0,14.0,35,0.00,,---,0.00,VWS V13.01,2013-02-15 18:46:00,
2013-02-15 13:48:00,63.1,34.3,29.96,SSW,209,0.0,14.0,34,0.00,,---,0.00,VWS V13.01,2013-02-15 18:48:00,
2013-02-15 13:50:00,63.2,35.1,29.96,WSW,252,3.0,14.0,35,0.00,,---,0.00,VWS V13.01,2013-02-15 18:50:00,
2013-02-15 13:51:00,63.2,34.4,29.96,WSW,252,0.0,14.0,34,0.00,,---,0.00,VWS V13.01,2013-02-15 18:51:00,
2013-02-15 13:53:00,63.3,35.2,29.95,WSW,252,4.0,14.0,35,0.00,,---,0.00,VWS V13.01,2013-02-15 18:53:00,
2013-02-15 13:55:00,63.3,35.2,29.95,SSW,209,0.0,14.0,35,0.00,,---,0.00,VWS V13.01,2013-02-15 18:55:00,
2013-02-15 13:56:00,63.3,35.2,29.95,WSW,258,5.0,14.0,35,0.00,,---,0.00,VWS V13.01,2013-02-15 18:56:00,
2013-02-15 13:59:00,63.3,35.2,29.95,SSW,209,0.0,14.0,35,0.00,,---,0.00,VWS V13.01,2013-02-15 18:59:00,
2013-02-15 14:00:00,63.3,34.5,29.95,West,261,2.0,14.0,34,0.00,,---,0.00,VWS V13.01,2013-02-15 19:00:00,
2013-02-15 14:01:00,63.3,34.5,29.95,West,260,1.0,14.0,34,0.00,,---,0.00,VWS V13.01,2013-02-15 19:01:00,
2013-02-15 14:05:00,63.4,34.6,29.95,WSW,254,0.0,6.0,34,0.00,,---,0.00,VWS V13.01,2013-02-15 19:05:00,
2013-02-15 14:06:00,63.4,35.3,29.95,SW,218,0.0,6.0,35,0.00,,---,0.00,VWS V13.01,2013-02-15 19:06:00,
2013-02-15 14:10:00,63.5,34.7,29.94,SSW,200,3.0,12.0,34,0.00,,---,0.00,VWS V13.01,2013-02-15 19:10:00,
2013-02-15 14:11:00,63.5,35.4,29.94,SW,217,11.0,12.0,35,0.00,,---,0.00,VWS V13.01,2013-02-15 19:11:00,
2013-02-15 14:15:00,63.6,35.5,29.94,SSW,195,1.0,12.0,35,0.00,,---,0.00,VWS V13.01,2013-02-15 19:15:00,
2013-02-15 14:16:00,63.6,35.5,29.94,SSW,197,2.0,12.0,35,0.00,,---,0.00,VWS V13.01,2013-02-15 19:16:00,
2013-02-15 14:20:00,63.6,35.5,29.94,West,273,3.0,12.0,35,0.00,,---,0.00,VWS V13.01,2013-02-15 19:20:00,
2013-02-15 14:21:00,63.6,35.5,29.94,WNW,288,1.0,12.0,35,0.00,,---,0.00,VWS V13.01,2013-02-15 19:21:00,
2013-02-15 14:25:00,63.7,36.3,29.94,SW,234,2.0,12.0,36,0.00,,---,0.00,VWS V13.01,2013-02-15 19:25:00,
2013-02-15 14:26:00,63.7,36.3,29.94,SSW,205,5.0,12.0,36,0.00,,---,0.00,VWS V13.01,2013-02-15 19:26:00,
2013-02-15 14:27:00,63.7,36.3,29.94,SSE,163,3.0,12.0,36,0.00,,---,0.00,VWS V13.01,2013-02-15 19:27:00,
2013-02-15 14:30:00,63.7,35.6,29.94,SSW,213,4.0,14.0,35,0.00,,---,0.00,VWS V13.01,2013-02-15 19:30:00,
2013-02-15 14:31:00,63.6,34.7,29.93,South,191,7.0,12.0,34,0.00,,---,0.00,VWS V13.01,2013-02-15 19:31:00,
2013-02-15 14:32:00,63.6,34.7,29.93,SW,225,3.0,12.0,34,0.00,,---,0.00,VWS V13.01,2013-02-15 19:32:00,
2013-02-15 14:35:00,63.4,35.3,29.93,WSW,245,0.0,14.0,35,0.00,,---,0.00,VWS V13.01,2013-02-15 19:35:00,
2013-02-15 14:36:00,63.4,35.3,29.93,SW,231,2.0,14.0,35,0.00,,---,0.00,VWS V13.01,2013-02-15 19:36:00,
2013-02-15 14:37:00,63.3,35.2,29.93,SW,217,4.0,14.0,35,0.00,,---,0.00,VWS V13.01,2013-02-15 19:37:00,
2013-02-15 14:40:00,63.3,34.5,29.93,WSW,241,4.0,14.0,34,0.00,,---,0.00,VWS V13.01,2013-02-15 19:40:00,
2013-02-15 14:41:00,63.3,34.5,29.93,WSW,241,1.0,14.0,34,0.00,,---,0.00,VWS V13.01,2013-02-15 19:41:00,
2013-02-15 14:42:00,63.3,34.5,29.93,West,270,5.0,14.0,34,0.00,,---,0.00,VWS V13.01,2013-02-15 19:42:00,
2013-02-15 14:45:00,63.3,35.2,29.93,SW,221,5.0,14.0,35,0.00,,---,0.00,VWS V13.01,2013-02-15 19:45:00,
2013-02-15 14:46:00,63.3,34.5,29.93,SSW,205,1.0,14.0,34,0.00,,---,0.00,VWS V13.01,2013-02-15 19:46:00,
2013-02-15 14:47:00,63.3,35.2,29.93,WSW,257,0.0,14.0,35,0.00,,---,0.00,VWS V13.01,2013-02-15 19:47:00,
2013-02-15 14:50:00,63.3,34.5,29.92,WSW,250,2.0,14.0,34,0.00,,---,0.00,VWS V13.01,2013-02-15 19:50:00,
2013-02-15 14:51:00,63.2,35.1,29.93,SW,233,6.0,14.0,35,0.00,,---,0.00,VWS V13.01,2013-02-15 19:51:00,
2013-02-15 14:52:00,63.2,35.1,29.93,WSW,248,2.0,14.0,35,0.00,,---,0.00,VWS V13.01,2013-02-15 19:52:00,
2013-02-15 14:56:00,63.1,35.0,29.92,South,175,1.0,14.0,35,0.00,,---,0.00,VWS V13.01,2013-02-15 19:56:00,
2013-02-15 14:57:00,63.1,35.0,29.92,SSW,198,3.0,14.0,35,0.00,,---,0.00,VWS V13.01,2013-02-15 19:57:00,
2013-02-15 15:01:00,62.9,34.8,29.92,West,261,1.0,3.0,35,0.00,,---,0.00,VWS V13.01,2013-02-15 20:01:00,
2013-02-15 15:02:00,62.9,35.6,29.92,WSW,254,0.0,3.0,36,0.00,,---,0.00,VWS V13.01,2013-02-15 20:02:00,
2013-02-15 15:06:00,62.9,34.8,29.92,SW,215,8.0,9.0,35,0.00,,---,0.00,VWS V13.01,2013-02-15 20:06:00,
2013-02-15 15:07:00,62.9,34.1,29.92,SSW,211,9.0,9.0,34,0.00,,---,0.00,VWS V13.01,2013-02-15 20:07:00,
2013-02-15 15:11:00,62.8,34.8,29.91,SSW,194,5.0,10.0,35,0.00,,---,0.00,VWS V13.01,2013-02-15 20:11:00,
2013-02-15 15:12:00,62.8,34.0,29.92,WSW,252,7.0,14.0,34,0.00,,---,0.00,VWS V13.01,2013-02-15 20:12:00,
2013-02-15 15:13:00,62.8,34.0,29.92,WSW,244,5.0,14.0,34,0.00,,---,0.00,VWS V13.01,2013-02-15 20:13:00,
2013-02-15 15:16:00,62.8,34.0,29.92,SW,214,0.0,14.0,34,0.00,,---,0.00,VWS V13.01,2013-02-15 20:16:00,
2013-02-15 15:17:00,62.8,34.0,29.92,SW,214,0.0,14.0,34,0.00,,---,0.00,VWS V13.01,2013-02-15 20:17:00,
2013-02-15 15:18:00,62.8,34.0,29.92,SW,215,1.0,14.0,34,0.00,,---,0.00,VWS V13.01,2013-02-15 20:18:00,
2013-02-15 15:21:00,62.9,34.8,29.91,West,263,0.0,14.0,35,0.00,,---,0.00,VWS V13.01,2013-02-15 20:21:00,
2013-02-15 15:22:00,62.9,34.8,29.91,West,263,1.0,14.0,35,0.00,,---,0.00,VWS V13.01,2013-02-15 20:22:00,
2013-02-15 15:23:00,62.9,34.8,29.91,WSW,242,7.0,14.0,35,0.00,,---,0.00,VWS V13.01,2013-02-15 20:23:00,
2013-02-15 15:27:00,62.9,34.8,29.91,WSW,250,0.0,14.0,35,0.00,,---,0.00,VWS V13.01,2013-02-15 20:27:00,
2013-02-15 15:28:00,62.9,35.6,29.91,SW,234,3.0,14.0,36,0.00,,---,0.00,VWS V13.01,2013-02-15 20:28:00,
2013-02-15 15:32:00,63.0,34.9,29.91,WSW,252,0.0,7.0,35,0.00,,---,0.00,VWS V13.01,2013-02-15 20:32:00,
2013-02-15 15:33:00,62.9,34.8,29.91,WSW,251,4.0,7.0,35,0.00,,---,0.00,VWS V13.01,2013-02-15 20:33:00,
2013-02-15 15:37:00,62.9,34.8,29.90,WSW,253,3.0,7.0,35,0.00,,---,0.00,VWS V13.01,2013-02-15 20:37:00,
2013-02-15 15:38:00,62.8,34.8,29.90,WSW,253,1.0,7.0,35,0.00,,---,0.00,VWS V13.01,2013-02-15 20:38:00,
2013-02-15 15:42:00,62.5,35.9,29.90,West,263,2.0,11.0,37,0.00,,---,0.00,VWS V13.01,2013-02-15 20:42:00,
2013-02-15 15:43:00,62.5,35.2,29.90,SW,235,1.0,11.0,36,0.00,,---,0.00,VWS V13.01,2013-02-15 20:43:00,
2013-02-15 15:47:00,62.2,34.9,29.90,WSW,242,1.0,11.0,36,0.00,,---,0.00,VWS V13.01,2013-02-15 20:47:00,
2013-02-15 15:48:00,62.1,34.8,29.90,WSW,242,3.0,11.0,36,0.00,,---,0.00,VWS V13.01,2013-02-15 20:48:00,
2013-02-15 15:49:00,62.1,35.5,29.90,West,265,4.0,11.0,37,0.00,,---,0.00,VWS V13.01,2013-02-15 20:49:00,
2013-02-15 15:52:00,61.9,35.4,29.90,WSW,241,0.0,11.0,37,0.00,,---,0.00,VWS V13.01,2013-02-15 20:52:00,
2013-02-15 15:53:00,61.9,35.4,29.90,SW,215,7.0,11.0,37,0.00,,---,0.00,VWS V13.01,2013-02-15 20:53:00,
2013-02-15 15:54:00,61.8,34.6,29.90,WSW,240,4.0,11.0,36,0.00,,---,0.00,VWS V13.01,2013-02-15 20:54:00,
2013-02-15 15:57:00,61.7,35.2,29.90,WSW,254,0.0,11.0,37,0.00,,---,0.00,VWS V13.01,2013-02-15 20:57:00,
2013-02-15 15:58:00,61.7,35.2,29.90,WSW,254,1.0,11.0,37,0.00,,---,0.00,VWS V13.01,2013-02-15 20:58:00,
2013-02-15 15:59:00,61.6,35.1,29.90,West,269,1.0,11.0,37,0.00,,---,0.00,VWS V13.01,2013-02-15 20:59:00,
2013-02-15 16:02:00,61.6,35.1,29.90,West,265,0.0,3.0,37,0.00,,---,0.00,VWS V13.01,2013-02-15 21:02:00,
2013-02-15 16:03:00,61.5,35.7,29.90,South,173,9.0,11.0,38,0.00,,---,0.00,VWS V13.01,2013-02-15 21:03:00,
2013-02-15 16:04:00,61.5,35.0,29.90,SSE,165,5.0,11.0,37,0.00,,---,0.00,VWS V13.01,2013-02-15 21:04:00,
2013-02-15 16:07:00,61.2,34.1,29.90,SW,217,1.0,11.0,36,0.00,,---,0.00,VWS V13.01,2013-02-15 21:07:00,
2013-02-15 16:08:00,61.1,34.7,29.90,SW,215,0.0,11.0,37,0.00,,---,0.00,VWS V13.01,2013-02-15 21:08:00,
2013-02-15 16:09:00,61.1,34.7,29.90,SW,232,2.0,11.0,37,0.00,,---,0.00,VWS V13.01,2013-02-15 21:09:00,
2013-02-15 16:12:00,60.9,35.1,29.90,SW,219,3.0,11.0,38,0.00,,---,0.00,VWS V13.01,2013-02-15 21:12:00,
2013-02-15 16:13:00,60.9,34.5,29.90,SW,226,0.0,11.0,37,0.00,,---,0.00,VWS V13.01,2013-02-15 21:13:00,
2013-02-15 16:14:00,60.8,34.4,29.90,SW,226,0.0,11.0,37,0.00,,---,0.00,VWS V13.01,2013-02-15 21:14:00,
2013-02-15 16:15:00,60.8,35.1,29.90,SW,226,2.0,11.0,38,0.00,,---,0.00,VWS V13.01,2013-02-15 21:15:00,
2013-02-15 16:17:00,60.7,35.0,29.90,SSW,198,1.0,11.0,38,0.00,,---,0.00,VWS V13.01,2013-02-15 21:17:00,
2013-02-15 16:18:00,60.6,34.2,29.90,SSW,208,4.0,11.0,37,0.00,,---,0.00,VWS V13.01,2013-02-15 21:18:00,
2013-02-15 16:19:00,60.5,34.1,29.90,SW,227,3.0,11.0,37,0.00,,---,0.00,VWS V13.01,2013-02-15 21:19:00,
2013-02-15 16:20:00,60.5,34.1,29.90,SW,227,0.0,11.0,37,0.00,,---,0.00,VWS V13.01,2013-02-15 21:20:00,
2013-02-15 16:22:00,60.4,34.0,29.90,SSW,196,1.0,11.0,37,0.00,,---,0.00,VWS V13.01,2013-02-15 21:22:00,
2013-02-15 16:23:00,60.4,34.0,29.89,SSW,196,0.0,11.0,37,0.00,,---,0.00,VWS V13.01,2013-02-15 21:23:00,
2013-02-15 16:24:00,60.3,33.9,29.90,SSW,192,7.0,11.0,37,0.00,,---,0.00,VWS V13.01,2013-02-15 21:24:00,
2013-02-15 16:25:00,60.2,33.2,29.90,SSW,192,0.0,11.0,36,0.00,,---,0.00,VWS V13.01,2013-02-15 21:25:00,
2013-02-15 16:28:00,60.1,33.8,29.89,SSE,148,7.0,11.0,37,0.00,,---,0.00,VWS V13.01,2013-02-15 21:28:00,
2013-02-15 16:29:00,59.9,33.6,29.89,WSW,249,5.0,11.0,37,0.00,,---,0.00,VWS V13.01,2013-02-15 21:29:00,
2013-02-15 16:30:00,59.9,33.6,29.89,WSW,258,3.0,11.0,37,0.00,,---,0.00,VWS V13.01,2013-02-15 21:30:00,
2013-02-15 16:33:00,59.8,34.2,29.89,WSW,244,0.0,0.0,38,0.00,,---,0.00,VWS V13.01,2013-02-15 21:33:00,
2013-02-15 16:34:00,59.8,34.2,29.89,SSW,202,4.0,10.0,38,0.00,,---,0.00,VWS V13.01,2013-02-15 21:34:00,
2013-02-15 16:35:00,59.8,33.5,29.89,South,188,6.0,10.0,37,0.00,,---,0.00,VWS V13.01,2013-02-15 21:35:00,
2013-02-15 16:38:00,59.7,33.4,29.89,South,186,4.0,11.0,37,0.00,,---,0.00,VWS V13.01,2013-02-15 21:38:00,
2013-02-15 16:40:00,59.6,33.3,29.89,South,186,0.0,11.0,37,0.00,,---,0.00,VWS V13.01,2013-02-15 21:40:00,
2013-02-15 16:43:00,59.6,34.0,29.89,SW,234,4.0,11.0,38,0.00,,---,0.00,VWS V13.01,2013-02-15 21:43:00,
2013-02-15 16:45:00,59.4,33.1,29.89,SW,235,6.0,13.0,37,0.00,,---,0.00,VWS V13.01,2013-02-15 21:45:00,
2013-02-15 16:48:00,59.4,33.8,29.89,SW,217,7.0,13.0,38,0.00,,---,0.00,VWS V13.01,2013-02-15 21:48:00,
2013-02-15 16:49:00,59.3,33.7,29.89,SW,233,6.0,13.0,38,0.00,,---,0.00,VWS V13.01,2013-02-15 21:49:00,
2013-02-15 16:50:00,59.3,33.7,29.89,SW,218,0.0,13.0,38,0.00,,---,0.00,VWS V13.01,2013-02-15 21:50:00,
2013-02-15 16:53:00,59.1,33.5,29.89,SSW,198,0.0,13.0,38,0.00,,---,0.00,VWS V13.01,2013-02-15 21:53:00,
2013-02-15 16:54:00,59.0,33.5,29.89,SSW,202,1.0,13.0,38,0.00,,---,0.00,VWS V13.01,2013-02-15 21:54:00,
2013-02-15 16:55:00,59.0,33.5,29.89,SW,234,4.0,13.0,38,0.00,,---,0.00,VWS V13.01,2013-02-15 21:55:00,
2013-02-15 16:58:00,59.0,33.5,29.89,South,186,0.0,13.0,38,0.00,,---,0.00,VWS V13.01,2013-02-15 21:58:00,
2013-02-15 16:59:00,59.0,33.5,29.89,South,191,0.0,13.0,38,0.00,,---,0.00,VWS V13.01,2013-02-15 21:59:00,
2013-02-15 17:00:00,59.0,33.5,29.89,SW,235,0.0,13.0,38,0.00,,---,0.00,VWS V13.01,2013-02-15 22:00:00,
2013-02-15 17:01:00,59.0,33.5,29.89,SW,234,0.0,13.0,38,0.00,,---,0.00,VWS V13.01,2013-02-15 22:01:00,
2013-02-15 17:03:00,59.0,33.5,29.89,SW,233,0.0,3.0,38,0.00,,---,0.00,VWS V13.01,2013-02-15 22:03:00,
2013-02-15 17:04:00,59.0,33.5,29.89,SW,233,0.0,3.0,38,0.00,,---,0.00,VWS V13.01,2013-02-15 22:04:00,
2013-02-15 17:05:00,59.0,33.5,29.89,SW,234,0.0,3.0,38,0.00,,---,0.00,VWS V13.01,2013-02-15 22:05:00,
2013-02-15 17:06:00,59.0,33.5,29.89,WSW,245,5.0,6.0,38,0.00,,---,0.00,VWS V13.01,2013-02-15 22:06:00,
2013-02-15 17:08:00,59.0,34.1,29.89,SSW,213,5.0,7.0,39,0.00,,---,0.00,VWS V13.01,2013-02-15 22:08:00,
2013-02-15 17:09:00,58.9,34.0,29.89,SW,227,5.0,7.0,39,0.00,,---,0.00,VWS V13.01,2013-02-15 22:09:00,
2013-02-15 17:10:00,58.8,33.9,29.89,SW,232,0.0,7.0,39,0.00,,---,0.00,VWS V13.01,2013-02-15 22:10:00,
2013-02-15 17:11:00,58.8,33.9,29.89,SW,236,2.0,7.0,39,0.00,,---,0.00,VWS V13.01,2013-02-15 22:11:00,
2013-02-15 17:13:00,58.7,33.8,29.89,South,173,5.0,14.0,39,0.00,,---,0.00,VWS V13.01,2013-02-15 22:13:00,
2013-02-15 17:14:00,58.6,33.7,29.89,South,173,3.0,14.0,39,0.00,,---,0.00,VWS V13.01,2013-02-15 22:14:00,
2013-02-15 17:15:00,58.6,33.7,29.89,SSW,207,0.0,14.0,39,0.00,,---,0.00,VWS V13.01,2013-02-15 22:15:00,
2013-02-15 17:16:00,58.5,33.7,29.89,SSW,205,5.0,14.0,39,0.00,,---,0.00,VWS V13.01,2013-02-15 22:16:00,
2013-02-15 17:19:00,58.4,34.2,29.89,SSW,210,3.0,14.0,40,0.00,,---,0.00,VWS V13.01,2013-02-15 22:19:00,
2013-02-15 17:20:00,58.3,34.1,29.89,SW,232,7.0,14.0,40,0.00,,---,0.00,VWS V13.01,2013-02-15 22:20:00,
2013-02-15 17:21:00,58.2,33.4,29.89,SSW,203,6.0,14.0,39,0.00,,---,0.00,VWS V13.01,2013-02-15 22:21:00,
2013-02-15 17:24:00,58.2,33.4,29.89,SSW,206,0.0,14.0,39,0.00,,---,0.00,VWS V13.01,2013-02-15 22:24:00,
2013-02-15 17:25:00,58.1,33.9,29.89,WSW,242,1.0,14.0,40,0.00,,---,0.00,VWS V13.01,2013-02-15 22:25:00,
2013-02-15 17:26:00,58.1,33.9,29.89,West,267,3.0,14.0,40,0.00,,---,0.00,VWS V13.01,2013-02-15 22:26:00,
2013-02-15 17:29:00,58.0,33.8,29.89,SW,227,1.0,14.0,40,0.00,,---,0.00,VWS V13.01,2013-02-15 22:29:00,
2013-02-15 17:30:00,57.9,33.8,29.89,SSW,204,0.0,14.0,40,0.00,,---,0.00,VWS V13.01,2013-02-15 22:30:00,
2013-02-15 17:31:00,57.9,33.8,29.89,SSW,209,0.0,0.0,40,0.00,,---,0.00,VWS V13.01,2013-02-15 22:31:00,
2013-02-15 17:34:00,57.8,33.7,29.89,SSW,194,3.0,10.0,40,0.00,,---,0.00,VWS V13.01,2013-02-15 22:34:00,
2013-02-15 17:35:00,57.7,33.6,29.89,SSW,202,0.0,10.0,40,0.00,,---,0.00,VWS V13.01,2013-02-15 22:35:00,
2013-02-15 17:36:00,57.7,33.6,29.89,SSW,212,0.0,10.0,40,0.00,,---,0.00,VWS V13.01,2013-02-15 22:36:00,
2013-02-15 17:39:00,57.6,33.5,29.89,SSW,205,7.0,10.0,40,0.00,,---,0.00,VWS V13.01,2013-02-15 22:39:00,
2013-02-15 17:40:00,57.5,33.4,29.89,West,272,5.0,11.0,40,0.00,,---,0.00,VWS V13.01,2013-02-15 22:40:00,
2013-02-15 17:41:00,57.5,32.8,29.89,SW,219,0.0,11.0,39,0.00,,---,0.00,VWS V13.01,2013-02-15 22:41:00,
2013-02-15 17:44:00,57.4,33.3,29.89,SW,219,4.0,11.0,40,0.00,,---,0.00,VWS V13.01,2013-02-15 22:44:00,
2013-02-15 17:45:00,57.4,33.3,29.89,West,269,0.0,11.0,40,0.00,,---,0.00,VWS V13.01,2013-02-15 22:45:00,
2013-02-15 17:46:00,57.3,33.2,29.89,West,269,0.0,11.0,40,0.00,,---,0.00,VWS V13.01,2013-02-15 22:46:00,
2013-02-15 17:49:00,57.3,33.2,29.89,SSW,211,4.0,11.0,40,0.00,,---,0.00,VWS V13.01,2013-02-15 22:49:00,
2013-02-15 17:50:00,57.2,33.7,29.89,SW,218,1.0,11.0,41,0.00,,---,0.00,VWS V13.01,2013-02-15 22:50:00,
2013-02-15 17:51:00,57.2,33.7,29.89,SW,217,0.0,11.0,41,0.00,,---,0.00,VWS V13.01,2013-02-15 22:51:00,
2013-02-15 17:54:00,57.1,33.0,29.89,SW,217,0.0,11.0,40,0.00,,---,0.00,VWS V13.01,2013-02-15 22:54:00,
2013-02-15 17:55:00,57.1,33.6,29.89,SW,217,0.0,11.0,41,0.00,,---,0.00,VWS V13.01,2013-02-15 22:55:00,
2013-02-15 17:56:00,57.0,33.5,29.89,SW,216,0.0,11.0,41,0.00,,---,0.00,VWS V13.01,2013-02-15 22:56:00,
2013-02-15 18:00:00,56.9,33.5,29.89,SW,216,0.0,11.0,41,0.00,,---,0.00,VWS V13.01,2013-02-15 23:00:00,
2013-02-15 18:01:00,56.8,33.4,29.89,SW,215,0.0,0.0,41,0.00,,---,0.00,VWS V13.01,2013-02-15 23:01:00,
2013-02-15 18:05:00,56.6,33.2,29.89,SW,215,0.0,0.0,41,0.00,,---,0.00,VWS V13.01,2013-02-15 23:05:00,
2013-02-15 18:06:00,56.5,33.1,29.89,SW,216,0.0,1.0,41,0.00,,---,0.00,VWS V13.01,2013-02-15 23:06:00,
2013-02-15 18:10:00,56.3,33.5,29.89,SW,216,0.0,1.0,42,0.00,,---,0.00,VWS V13.01,2013-02-15 23:10:00,
2013-02-15 18:11:00,56.3,33.5,29.89,SW,215,0.0,1.0,42,0.00,,---,0.00,VWS V13.01,2013-02-15 23:11:00,
2013-02-15 18:15:00,56.0,33.2,29.89,SW,219,0.0,4.0,42,0.00,,---,0.00,VWS V13.01,2013-02-15 23:15:00,
2013-02-15 18:16:00,56.0,33.2,29.89,SW,218,0.0,4.0,42,0.00,,---,0.00,VWS V13.01,2013-02-15 23:16:00,
2013-02-15 18:20:00,55.7,33.6,29.89,SW,218,0.0,4.0,43,0.00,,---,0.00,VWS V13.01,2013-02-15 23:20:00,
2013-02-15 18:21:00,55.7,33.6,29.89,SW,218,0.0,4.0,43,0.00,,---,0.00,VWS V13.01,2013-02-15 23:21:00,
2013-02-15 18:25:00,55.4,33.3,29.89,SW,215,0.0,4.0,43,0.00,,---,0.00,VWS V13.01,2013-02-15 23:25:00,
2013-02-15 18:26:00,55.3,33.2,29.89,SW,215,0.0,4.0,43,0.00,,---,0.00,VWS V13.01,2013-02-15 23:26:00,
2013-02-15 18:27:00,55.3,33.2,29.89,SW,215,0.0,4.0,43,0.00,,---,0.00,VWS V13.01,2013-02-15 23:27:00,
2013-02-15 18:30:00,55.1,33.6,29.89,SW,215,0.0,4.0,44,0.00,,---,0.00,VWS V13.01,2013-02-15 23:30:00,
2013-02-15 18:31:00,55.0,33.5,29.89,SW,215,0.0,4.0,44,0.00,,---,0.00,VWS V13.01,2013-02-15 23:31:00,
2013-02-15 18:32:00,55.0,33.5,29.89,SW,215,0.0,0.0,44,0.00,,---,0.00,VWS V13.01,2013-02-15 23:32:00,
2013-02-15 18:35:00,54.7,33.2,29.89,SW,215,0.0,0.0,44,0.00,,---,0.00,VWS V13.01,2013-02-15 23:35:00,
2013-02-15 18:36:00,54.6,33.1,29.89,SW,214,0.0,0.0,44,0.00,,---,0.00,VWS V13.01,2013-02-15 23:36:00,
2013-02-15 18:37:00,54.6,33.1,29.89,SW,215,0.0,0.0,44,0.00,,---,0.00,VWS V13.01,2013-02-15 23:37:00,
2013-02-15 18:40:00,54.4,33.0,29.90,SW,215,0.0,0.0,44,0.00,,---,0.00,VWS V13.01,2013-02-15 23:40:00,
2013-02-15 18:41:00,54.3,33.4,29.89,SW,215,0.0,0.0,45,0.00,,---,0.00,VWS V13.01,2013-02-15 23:41:00,
2013-02-15 18:42:00,54.2,33.3,29.89,SW,215,0.0,0.0,45,0.00,,---,0.00,VWS V13.01,2013-02-15 23:42:00,
2013-02-15 18:45:00,54.0,33.2,29.90,SW,214,0.0,0.0,45,0.00,,---,0.00,VWS V13.01,2013-02-15 23:45:00,
2013-02-15 18:46:00,54.0,33.2,29.90,SW,215,0.0,0.0,45,0.00,,---,0.00,VWS V13.01,2013-02-15 23:46:00,
2013-02-15 18:47:00,53.9,33.1,29.90,SW,215,0.0,0.0,45,0.00,,---,0.00,VWS V13.01,2013-02-15 23:47:00,
2013-02-15 18:50:00,53.7,32.9,29.90,SW,215,0.0,1.0,45,0.00,,---,0.00,VWS V13.01,2013-02-15 23:50:00,
2013-02-15 18:51:00,53.7,32.9,29.90,SW,214,2.0,2.0,45,0.00,,---,0.00,VWS V13.01,2013-02-15 23:51:00,
2013-02-15 18:52:00,53.6,32.8,29.90,SW,215,0.0,3.0,45,0.00,,---,0.00,VWS V13.01,2013-02-15 23:52:00,
2013-02-15 18:55:00,53.3,33.1,29.90,SSW,198,0.0,3.0,46,0.00,,---,0.00,VWS V13.01,2013-02-15 23:55:00,
2013-02-15 18:56:00,53.3,33.1,29.90,SSW,198,0.0,3.0,46,0.00,,---,0.00,VWS V13.01,2013-02-15 23:56:00,
2013-02-15 18:57:00,53.2,33.0,29.90,SSW,198,0.0,3.0,46,0.00,,---,0.00,VWS V13.01,2013-02-15 23:57:00,
2013-02-15 19:00:00,53.1,32.9,29.90,SSW,198,0.0,3.0,46,0.00,,---,0.00,VWS V13.01,2013-02-16 00:00:00,
2013-02-15 19:01:00,53.0,32.8,29.90,SSW,198,0.0,0.0,46,0.00,,---,0.00,VWS V13.01,2013-02-16 00:01:00,
2013-02-15 19:02:00,53.0,32.8,29.90,SSW,198,0.0,0.0,46,0.00,,---,0.00,VWS V13.01,2013-02-16 00:02:00,
2013-02-15 19:06:00,52.8,33.2,29.90,SSW,198,0.0,1.0,47,0.00,,---,0.00,VWS V13.01,2013-02-16 00:06:00,
2013-02-15 19:07:00,52.7,33.0,29.90,SSW,198,0.0,1.0,47,0.00,,---,0.00,VWS V13.01,2013-02-16 00:07:00,
2013-02-15 19:11:00,52.4,32.8,29.90,SSW,198,0.0,1.0,47,0.00,,---,0.00,VWS V13.01,2013-02-16 00:11:00,
2013-02-15 19:12:00,52.4,32.8,29.90,SSW,198,0.0,1.0,47,0.00,,---,0.00,VWS V13.01,2013-02-16 00:12:00,
2013-02-15 19:16:00,52.2,33.1,29.90,SSW,198,0.0,1.0,48,0.00,,---,0.00,VWS V13.01,2013-02-16 00:16:00,
2013-02-15 19:17:00,52.2,33.1,29.90,SSW,198,0.0,1.0,48,0.00,,---,0.00,VWS V13.01,2013-02-16 00:17:00,
2013-02-15 19:21:00,52.0,32.9,29.90,SSW,195,0.0,3.0,48,0.00,,---,0.00,VWS V13.01,2013-02-16 00:21:00,
2013-02-15 19:22:00,51.9,32.8,29.90,SSW,195,0.0,3.0,48,0.00,,---,0.00,VWS V13.01,2013-02-16 00:22:00,
2013-02-15 19:26:00,51.8,32.8,29.90,SSW,195,0.0,3.0,48,0.00,,---,0.00,VWS V13.01,2013-02-16 00:26:00,
2013-02-15 19:27:00,51.7,32.7,29.90,SSW,195,0.0,3.0,48,0.00,,---,0.00,VWS V13.01,2013-02-16 00:27:00,
2013-02-15 19:31:00,51.6,32.6,29.90,SSW,195,0.0,0.0,48,0.00,,---,0.00,VWS V13.01,2013-02-16 00:31:00,
2013-02-15 19:32:00,51.5,32.5,29.90,SSW,195,0.0,0.0,48,0.00,,---,0.00,VWS V13.01,2013-02-16 00:32:00,
2013-02-15 19:33:00,51.5,33.0,29.90,SSW,195,0.0,0.0,49,0.00,,---,0.00,VWS V13.01,2013-02-16 00:33:00,
2013-02-15 19:36:00,51.4,32.9,29.90,SSW,195,0.0,0.0,49,0.00,,---,0.00,VWS V13.01,2013-02-16 00:36:00,
2013-02-15 19:37:00,51.4,32.9,29.90,SSW,195,0.0,0.0,49,0.00,,---,0.00,VWS V13.01,2013-02-16 00:37:00,
2013-02-15 19:38:00,51.3,32.8,29.90,SSW,195,0.0,1.0,49,0.00,,---,0.00,VWS V13.01,2013-02-16 00:38:00,
2013-02-15 19:41:00,51.2,32.7,29.90,SSW,195,0.0,1.0,49,0.00,,---,0.00,VWS V13.01,2013-02-16 00:41:00,
2013-02-15 19:42:00,51.1,32.6,29.90,SSW,195,0.0,1.0,49,0.00,,---,0.00,VWS V13.01,2013-02-16 00:42:00,
2013-02-15 19:43:00,51.1,32.6,29.90,SSW,195,0.0,1.0,49,0.00,,---,0.00,VWS V13.01,2013-02-16 00:43:00,
2013-02-15 19:46:00,50.9,32.9,29.90,SSW,195,0.0,1.0,50,0.00,,---,0.00,VWS V13.01,2013-02-16 00:46:00,
2013-02-15 19:47:00,50.9,32.9,29.90,SSW,195,0.0,1.0,50,0.00,,---,0.00,VWS V13.01,2013-02-16 00:47:00,
2013-02-15 19:48:00,50.9,32.9,29.90,SSW,195,0.0,1.0,50,0.00,,---,0.00,VWS V13.01,2013-02-16 00:48:00,
2013-02-15 19:51:00,50.8,32.8,29.90,SSW,195,0.0,1.0,50,0.00,,---,0.00,VWS V13.01,2013-02-16 00:51:00,
2013-02-15 19:52:00,50.7,32.8,29.90,SSW,195,0.0,1.0,50,0.00,,---,0.00,VWS V13.01,2013-02-16 00:52:00,
2013-02-15 19:53:00,50.6,33.2,29.90,SSW,195,0.0,1.0,51,0.00,,---,0.00,VWS V13.01,2013-02-16 00:53:00,
2013-02-15 19:56:00,50.5,33.1,29.90,SSW,195,0.0,1.0,51,0.00,,---,0.00,VWS V13.01,2013-02-16 00:56:00,
2013-02-15 19:57:00,50.5,33.1,29.90,SSW,195,0.0,1.0,51,0.00,,---,0.00,VWS V13.01,2013-02-16 00:57:00,
2013-02-15 19:58:00,50.5,33.1,29.90,SSW,195,0.0,1.0,51,0.00,,---,0.00,VWS V13.01,2013-02-16 00:58:00,
2013-02-15 20:01:00,50.3,32.9,29.90,SSW,195,0.0,0.0,51,0.00,,---,0.00,VWS V13.01,2013-02-16 01:01:00,
2013-02-15 20:02:00,50.3,32.9,29.90,SSW,195,0.0,0.0,51,0.00,,---,0.00,VWS V13.01,2013-02-16 01:02:00,
2013-02-15 20:03:00,50.3,32.9,29.90,SSW,195,0.0,0.0,51,0.00,,---,0.00,VWS V13.01,2013-02-16 01:03:00,
2013-02-15 20:05:00,50.2,33.3,29.90,SSW,195,0.0,0.0,52,0.00,,---,0.00,VWS V13.01,2013-02-16 01:05:00,
2013-02-15 20:06:00,50.1,33.2,29.90,SSW,195,0.0,0.0,52,0.00,,---,0.00,VWS V13.01,2013-02-16 01:06:00,
2013-02-15 20:07:00,50.1,33.2,29.90,SSW,195,0.0,0.0,52,0.00,,---,0.00,VWS V13.01,2013-02-16 01:07:00,
2013-02-15 20:09:00,50.0,33.1,29.90,SSW,195,0.0,0.0,52,0.00,,---,0.00,VWS V13.01,2013-02-16 01:09:00,
2013-02-15 20:10:00,49.9,33.0,29.90,SSW,195,0.0,0.0,52,0.00,,---,0.00,VWS V13.01,2013-02-16 01:10:00,
2013-02-15 20:12:00,49.9,33.0,29.90,SSW,195,0.0,0.0,52,0.00,,---,0.00,VWS V13.01,2013-02-16 01:12:00,
2013-02-15 20:14:00,49.8,33.4,29.90,SSW,195,0.0,0.0,53,0.00,,---,0.00,VWS V13.01,2013-02-16 01:14:00,
2013-02-15 20:15:00,49.8,33.4,29.90,SSW,195,0.0,0.0,53,0.00,,---,0.00,VWS V13.01,2013-02-16 01:15:00,
2013-02-15 20:17:00,49.7,33.8,29.90,SSW,195,0.0,0.0,54,0.00,,---,0.00,VWS V13.01,2013-02-16 01:17:00,
2013-02-15 20:19:00,49.6,33.7,29.90,SSW,195,0.0,0.0,54,0.00,,---,0.00,VWS V13.01,2013-02-16 01:19:00,
2013-02-15 20:21:00,49.6,34.1,29.90,SSW,195,0.0,0.0,55,0.00,,---,0.00,VWS V13.01,2013-02-16 01:21:00,
2013-02-15 20:22:00,49.6,34.1,29.90,SSW,195,0.0,0.0,55,0.00,,---,0.00,VWS V13.01,2013-02-16 01:22:00,
2013-02-15 20:23:00,49.5,34.0,29.90,SSW,195,0.0,0.0,55,0.00,,---,0.00,VWS V13.01,2013-02-16 01:23:00,
2013-02-15 20:24:00,49.5,34.5,29.90,SSW,195,0.0,0.0,56,0.00,,---,0.00,VWS V13.01,2013-02-16 01:24:00,
2013-02-15 20:26:00,49.5,34.5,29.90,SSW,195,0.0,0.0,56,0.00,,---,0.00,VWS V13.01,2013-02-16 01:26:00,
2013-02-15 20:27:00,49.4,34.4,29.90,SSW,195,0.0,0.0,56,0.00,,---,0.00,VWS V13.01,2013-02-16 01:27:00,
2013-02-15 20:28:00,49.4,34.4,29.90,SSW,195,0.0,0.0,56,0.00,,---,0.00,VWS V13.01,2013-02-16 01:28:00,
2013-02-15 20:29:00,49.4,34.8,29.90,SSW,195,0.0,0.0,57,0.00,,---,0.00,VWS V13.01,2013-02-16 01:29:00,
2013-02-15 20:31:00,49.4,34.8,29.90,SSW,195,0.0,0.0,57,0.00,,---,0.00,VWS V13.01,2013-02-16 01:31:00,
2013-02-15 20:32:00,49.3,34.7,29.90,SSW,195,0.0,0.0,57,0.00,,---,0.00,VWS V13.01,2013-02-16 01:32:00,
2013-02-15 20:33:00,49.3,34.7,29.90,SSW,195,0.0,0.0,57,0.00,,---,0.00,VWS V13.01,2013-02-16 01:33:00,
2013-02-15 20:34:00,49.3,34.7,29.90,SSW,195,0.0,0.0,57,0.00,,---,0.00,VWS V13.01,2013-02-16 01:34:00,
2013-02-15 20:36:00,49.2,35.1,29.90,SSW,195,0.0,0.0,58,0.00,,---,0.00,VWS V13.01,2013-02-16 01:36:00,
2013-02-15 20:37:00,49.2,35.1,29.90,SSW,195,0.0,0.0,58,0.00,,---,0.00,VWS V13.01,2013-02-16 01:37:00,
2013-02-15 20:38:00,49.2,35.1,29.90,SSW,195,0.0,0.0,58,0.00,,---,0.00,VWS V13.01,2013-02-16 01:38:00,
2013-02-15 20:39:00,49.2,35.1,29.90,SSW,195,0.0,0.0,58,0.00,,---,0.00,VWS V13.01,2013-02-16 01:39:00,
2013-02-15 20:41:00,49.2,35.5,29.90,SSW,195,0.0,0.0,59,0.00,,---,0.00,VWS V13.01,2013-02-16 01:41:00,
2013-02-15 20:42:00,49.2,35.5,29.90,SSW,195,0.0,0.0,59,0.00,,---,0.00,VWS V13.01,2013-02-16 01:42:00,
2013-02-15 20:43:00,49.2,35.9,29.90,SSW,195,0.0,0.0,60,0.00,,---,0.00,VWS V13.01,2013-02-16 01:43:00,
2013-02-15 20:44:00,49.1,35.8,29.91,SSW,195,0.0,0.0,60,0.00,,---,0.00,VWS V13.01,2013-02-16 01:44:00,
2013-02-15 20:46:00,49.1,35.8,29.91,SSW,195,0.0,0.0,60,0.00,,---,0.00,VWS V13.01,2013-02-16 01:46:00,
2013-02-15 20:47:00,49.1,35.8,29.91,SSW,195,0.0,0.0,60,0.00,,---,0.00,VWS V13.01,2013-02-16 01:47:00,
2013-02-15 20:48:00,49.1,36.2,29.91,SSW,195,0.0,0.0,61,0.00,,---,0.00,VWS V13.01,2013-02-16 01:48:00,
2013-02-15 20:49:00,49.1,36.2,29.91,SSW,195,0.0,0.0,61,0.00,,---,0.00,VWS V13.01,2013-02-16 01:49:00,
2013-02-15 20:51:00,49.0,36.2,29.91,SSW,196,1.0,3.0,61,0.00,,---,0.00,VWS V13.01,2013-02-16 01:51:00,
2013-02-15 20:52:00,49.0,36.6,29.91,SSW,196,0.0,3.0,62,0.00,,---,0.00,VWS V13.01,2013-02-16 01:52:00,
2013-02-15 20:54:00,49.0,36.6,29.91,SSW,196,0.0,3.0,62,0.00,,---,0.00,VWS V13.01,2013-02-16 01:54:00,
2013-02-15 20:56:00,49.0,36.6,29.91,SSW,196,0.0,3.0,62,0.00,,---,0.00,VWS V13.01,2013-02-16 01:56:00,
2013-02-15 20:57:00,49.0,36.6,29.91,SSW,196,0.0,3.0,62,0.00,,---,0.00,VWS V13.01,2013-02-16 01:57:00,
2013-02-15 20:59:00,48.9,36.5,29.91,SSW,196,0.0,3.0,62,0.00,,---,0.00,VWS V13.01,2013-02-16 01:59:00,
2013-02-15 21:00:00,48.9,36.1,29.91,SSW,196,0.0,3.0,61,0.00,,---,0.00,VWS V13.01,2013-02-16 02:00:00,
2013-02-15 21:01:00,48.9,36.1,29.91,SSW,196,0.0,0.0,61,0.00,,---,0.00,VWS V13.01,2013-02-16 02:01:00,
2013-02-15 21:02:00,48.9,36.1,29.91,SSW,196,0.0,0.0,61,0.00,,---,0.00,VWS V13.01,2013-02-16 02:02:00,
2013-02-15 21:04:00,48.8,36.0,29.91,SSW,196,0.0,0.0,61,0.00,,---,0.00,VWS V13.01,2013-02-16 02:04:00,
2013-02-15 21:05:00,48.8,36.0,29.91,SSW,196,0.0,0.0,61,0.00,,---,0.00,VWS V13.01,2013-02-16 02:05:00,
2013-02-15 21:06:00,48.8,36.0,29.91,SSW,196,0.0,0.0,61,0.00,,---,0.00,VWS V13.01,2013-02-16 02:06:00,
2013-02-15 21:07:00,48.8,36.0,29.91,SSW,196,0.0,0.0,61,0.00,,---,0.00,VWS V13.01,2013-02-16 02:07:00,
2013-02-15 21:09:00,48.7,35.9,29.91,SSW,196,0.0,0.0,61,0.00,,---,0.00,VWS V13.01,2013-02-16 02:09:00,
2013-02-15 21:10:00,48.7,35.9,29.91,SSW,196,0.0,0.0,61,0.00,,---,0.00,VWS V13.01,2013-02-16 02:10:00,
2013-02-15 21:11:00,48.7,35.9,29.91,SSW,196,0.0,0.0,61,0.00,,---,0.00,VWS V13.01,2013-02-16 02:11:00,
2013-02-15 21:13:00,48.7,35.9,29.91,SSW,196,0.0,0.0,61,0.00,,---,0.00,VWS V13.01,2013-02-16 02:13:00,
2013-02-15 21:14:00,48.7,35.9,29.91,SSW,196,0.0,0.0,61,0.00,,---,0.00,VWS V13.01,2013-02-16 02:14:00,
2013-02-15 21:15:00,48.7,35.9,29.92,SSW,196,0.0,1.0,61,0.00,,---,0.00,VWS V13.01,2013-02-16 02:15:00,
2013-02-15 21:17:00,48.6,36.2,29.92,SSW,196,0.0,1.0,62,0.00,,---,0.00,VWS V13.01,2013-02-16 02:17:00,
2013-02-15 21:18:00,48.7,36.3,29.92,SSW,196,1.0,1.0,62,0.00,,---,0.00,VWS V13.01,2013-02-16 02:18:00,
2013-02-15 21:19:00,48.7,36.7,29.92,WSW,240,3.0,4.0,63,0.00,,---,0.00,VWS V13.01,2013-02-16 02:19:00,
2013-02-15 21:20:00,48.6,36.6,29.92,NNW,348,13.0,13.0,63,0.00,,---,0.00,VWS V13.01,2013-02-16 02:20:00,
2013-02-15 21:22:00,48.8,36.8,29.92,WNW,302,5.0,19.0,63,0.00,,---,0.00,VWS V13.01,2013-02-16 02:22:00,
2013-02-15 21:23:00,48.8,37.2,29.92,NW,313,5.0,19.0,64,0.00,,---,0.00,VWS V13.01,2013-02-16 02:23:00,
2013-02-15 21:24:00,48.9,36.9,29.92,West,265,6.0,19.0,63,0.00,,---,0.00,VWS V13.01,2013-02-16 02:24:00,
2013-02-15 21:25:00,49.0,37.4,29.92,NW,306,6.0,19.0,64,0.00,,---,0.00,VWS V13.01,2013-02-16 02:25:00,
2013-02-15 21:27:00,49.2,38.0,29.92,WSW,250,8.0,19.0,65,0.00,,---,0.00,VWS V13.01,2013-02-16 02:27:00,
2013-02-15 21:28:00,49.4,38.1,29.92,NNW,331,7.0,19.0,65,0.00,,---,0.00,VWS V13.01,2013-02-16 02:28:00,
2013-02-15 21:29:00,49.5,38.2,29.92,NNW,331,6.0,19.0,65,0.00,,---,0.00,VWS V13.01,2013-02-16 02:29:00,
2013-02-15 21:30:00,49.6,38.3,29.92,NW,314,6.0,19.0,65,0.00,,---,0.00,VWS V13.01,2013-02-16 02:30:00,
2013-02-15 21:32:00,49.7,38.8,29.92,WNW,287,5.0,10.0,66,0.00,,---,0.00,VWS V13.01,2013-02-16 02:32:00,
2013-02-15 21:33:00,49.8,38.9,29.93,NNW,329,3.0,10.0,66,0.00,,---,0.00,VWS V13.01,2013-02-16 02:33:00,
2013-02-15 21:34:00,49.8,38.9,29.92,North,350,7.0,10.0,66,0.00,,---,0.00,VWS V13.01,2013-02-16 02:34:00,
2013-02-15 21:35:00,49.9,39.0,29.93,NW,315,3.0,15.0,66,0.00,,---,0.00,VWS V13.01,2013-02-16 02:35:00,
2013-02-15 21:37:00,50.1,39.2,29.93,WNW,300,0.0,15.0,66,0.00,,---,0.00,VWS V13.01,2013-02-16 02:37:00,
2013-02-15 21:39:00,50.1,39.2,29.93,NW,319,6.0,15.0,66,0.00,,---,0.00,VWS V13.01,2013-02-16 02:39:00,
2013-02-15 21:40:00,50.1,39.6,29.93,NW,307,9.0,15.0,67,0.00,,---,0.00,VWS V13.01,2013-02-16 02:40:00,
2013-02-15 21:42:00,50.2,39.7,29.93,NNW,343,1.0,15.0,67,0.00,,---,0.00,VWS V13.01,2013-02-16 02:42:00,
2013-02-15 21:44:00,50.3,39.8,29.93,NNW,338,3.0,15.0,67,0.00,,---,0.00,VWS V13.01,2013-02-16 02:44:00,
2013-02-15 21:46:00,50.3,39.8,29.93,North,351,8.0,15.0,67,0.00,,---,0.00,VWS V13.01,2013-02-16 02:46:00,
2013-02-15 21:47:00,50.3,39.8,29.93,NW,306,4.0,15.0,67,0.00,,---,0.00,VWS V13.01,2013-02-16 02:47:00,
2013-02-15 21:49:00,50.3,39.8,29.93,NNW,344,7.0,15.0,67,0.00,,---,0.00,VWS V13.01,2013-02-16 02:49:00,
2013-02-15 21:51:00,50.3,39.8,29.93,North,360,0.0,15.0,67,0.00,,---,0.00,VWS V13.01,2013-02-16 02:51:00,
2013-02-15 21:52:00,50.3,40.2,29.93,North,360,4.0,15.0,68,0.00,,---,0.00,VWS V13.01,2013-02-16 02:52:00,
2013-02-15 21:54:00,50.3,40.2,29.93,North,5,5.0,15.0,68,0.00,,---,0.00,VWS V13.01,2013-02-16 02:54:00,
2013-02-15 21:56:00,50.2,40.1,29.94,NNE,28,4.0,15.0,68,0.00,,---,0.00,VWS V13.01,2013-02-16 02:56:00,
2013-02-15 21:57:00,50.1,39.6,29.94,North,360,2.0,15.0,67,0.00,,---,0.00,VWS V13.01,2013-02-16 02:57:00,
2013-02-15 21:59:00,50.0,39.5,29.94,North,355,13.0,16.0,67,0.00,,---,0.00,VWS V13.01,2013-02-16 02:59:00,
2013-02-15 22:01:00,49.9,39.8,29.94,NW,304,4.0,14.0,68,0.00,,---,0.00,VWS V13.01,2013-02-16 03:01:00,
2013-02-15 22:03:00,49.7,39.6,29.95,North,355,10.0,14.0,68,0.00,,---,0.00,VWS V13.01,2013-02-16 03:03:00,
2013-02-15 22:04:00,49.6,39.5,29.94,North,349,2.0,17.0,68,0.00,,---,0.00,VWS V13.01,2013-02-16 03:04:00,
2013-02-15 22:06:00,49.4,39.7,29.95,NNW,329,10.0,17.0,69,0.00,,---,0.00,VWS V13.01,2013-02-16 03:06:00,
2013-02-15 22:08:00,49.2,39.5,29.95,North,351,7.0,17.0,69,0.00,,---,0.00,VWS V13.01,2013-02-16 03:08:00,
2013-02-15 22:09:00,49.1,39.4,29.95,North,351,3.0,17.0,69,0.00,,---,0.00,VWS V13.01,2013-02-16 03:09:00,
2013-02-15 22:10:00,49.0,39.3,29.95,North,355,3.0,17.0,69,0.00,,---,0.00,VWS V13.01,2013-02-16 03:10:00,
2013-02-15 22:11:00,49.0,39.3,29.95,NW,321,3.0,17.0,69,0.00,,---,0.00,VWS V13.01,2013-02-16 03:11:00,
2013-02-15 22:13:00,48.8,39.5,29.95,NNW,342,3.0,17.0,70,0.00,,---,0.00,VWS V13.01,2013-02-16 03:13:00,
2013-02-15 22:14:00,48.8,39.5,29.95,NNW,341,1.0,17.0,70,0.00,,---,0.00,VWS V13.01,2013-02-16 03:14:00,
2013-02-15 22:15:00,48.7,39.4,29.95,NNW,342,4.0,17.0,70,0.00,,---,0.00,VWS V13.01,2013-02-16 03:15:00,
2013-02-15 22:16:00,48.6,39.3,29.95,NNW,330,5.0,17.0,70,0.00,,---,0.00,VWS V13.01,2013-02-16 03:16:00,
2013-02-15 22:19:00,48.5,39.2,29.95,NNW,332,3.0,17.0,70,0.00,,---,0.00,VWS V13.01,2013-02-16 03:19:00,
2013-02-15 22:20:00,48.4,39.1,29.95,NNW,338,0.0,17.0,70,0.00,,---,0.00,VWS V13.01,2013-02-16 03:20:00,
2013-02-15 22:21:00,48.3,39.0,29.95,North,360,5.0,17.0,70,0.00,,---,0.00,VWS V13.01,2013-02-16 03:21:00,
2013-02-15 22:24:00,48.2,39.2,29.95,NNW,331,9.0,17.0,71,0.00,,---,0.00,VWS V13.01,2013-02-16 03:24:00,
2013-02-15 22:25:00,48.1,39.2,29.95,NNW,332,2.0,17.0,71,0.00,,---,0.00,VWS V13.01,2013-02-16 03:25:00,
2013-02-15 22:26:00,48.0,39.1,29.95,NNW,341,4.0,17.0,71,0.00,,---,0.00,VWS V13.01,2013-02-16 03:26:00,
2013-02-15 22:29:00,47.8,38.9,29.95,NNW,348,5.0,17.0,71,0.00,,---,0.00,VWS V13.01,2013-02-16 03:29:00,
2013-02-15 22:30:00,47.8,38.9,29.95,NW,325,0.0,17.0,71,0.00,,---,0.00,VWS V13.01,2013-02-16 03:30:00,
2013-02-15 22:31:00,47.7,38.8,29.95,NNW,336,5.0,6.0,71,0.00,,---,0.00,VWS V13.01,2013-02-16 03:31:00,
2013-02-15 22:34:00,47.5,38.9,29.95,NW,317,0.0,10.0,72,0.00,,---,0.00,VWS V13.01,2013-02-16 03:34:00,
2013-02-15 22:35:00,47.5,38.9,29.95,NW,310,11.0,17.0,72,0.00,,---,0.00,VWS V13.01,2013-02-16 03:35:00,
2013-02-15 22:36:00,47.4,38.5,29.96,WNW,302,3.0,17.0,71,0.00,,---,0.00,VWS V13.01,2013-02-16 03:36:00,
2013-02-15 22:39:00,47.3,38.4,29.96,NW,308,4.0,17.0,71,0.00,,---,0.00,VWS V13.01,2013-02-16 03:39:00,
2013-02-15 22:40:00,47.2,38.3,29.96,West,279,9.0,17.0,71,0.00,,---,0.00,VWS V13.01,2013-02-16 03:40:00,
2013-02-15 22:42:00,47.2,37.9,29.96,NW,315,6.0,17.0,70,0.00,,---,0.00,VWS V13.01,2013-02-16 03:42:00,
2013-02-15 22:44:00,47.0,37.7,29.95,WNW,298,6.0,17.0,70,0.00,,---,0.00,VWS V13.01,2013-02-16 03:44:00,
2013-02-15 22:45:00,47.0,37.7,29.95,NW,309,3.0,17.0,70,0.00,,---,0.00,VWS V13.01,2013-02-16 03:45:00,
2013-02-15 22:47:00,46.9,37.3,29.95,NNW,329,7.0,17.0,69,0.00,,---,0.00,VWS V13.01,2013-02-16 03:47:00,
2013-02-15 22:49:00,46.7,37.1,29.96,NW,307,0.0,17.0,69,0.00,,---,0.00,VWS V13.01,2013-02-16 03:49:00,
2013-02-15 22:50:00,46.7,37.1,29.96,NW,308,0.0,17.0,69,0.00,,---,0.00,VWS V13.01,2013-02-16 03:50:00,
2013-02-15 22:52:00,46.7,37.1,29.95,NNW,332,0.0,17.0,69,0.00,,---,0.00,VWS V13.01,2013-02-16 03:52:00,
2013-02-15 22:55:00,46.6,37.0,29.96,NW,304,12.0,17.0,69,0.00,,---,0.00,VWS V13.01,2013-02-16 03:55:00,
2013-02-15 22:57:00,46.5,36.9,29.95,NNW,330,0.0,17.0,69,0.00,,---,0.00,VWS V13.01,2013-02-16 03:57:00,
2013-02-15 23:00:00,46.4,36.8,29.95,NNW,341,5.0,17.0,69,0.00,,---,0.00,VWS V13.01,2013-02-16 04:00:00,
2013-02-15 23:02:00,46.3,36.7,29.95,NW,313,1.0,8.0,69,0.00,,---,0.00,VWS V13.01,2013-02-16 04:02:00,
2013-02-15 23:05:00,46.2,36.6,29.95,NNW,345,1.0,10.0,69,0.00,,---,0.00,VWS V13.01,2013-02-16 04:05:00,
2013-02-15 23:06:00,46.1,36.5,29.95,NNW,342,1.0,10.0,69,0.00,,---,0.00,VWS V13.01,2013-02-16 04:06:00,
2013-02-15 23:07:00,46.1,36.5,29.95,NNW,348,7.0,13.0,69,0.00,,---,0.00,VWS V13.01,2013-02-16 04:07:00,
2013-02-15 23:10:00,46.0,36.4,29.95,NW,325,4.0,13.0,69,0.00,,---,0.00,VWS V13.01,2013-02-16 04:10:00,
2013-02-15 23:11:00,46.0,36.4,29.95,NNW,333,1.0,14.0,69,0.00,,---,0.00,VWS V13.01,2013-02-16 04:11:00,
2013-02-15 23:12:00,45.9,36.3,29.95,NNW,346,7.0,14.0,69,0.00,,---,0.00,VWS V13.01,2013-02-16 04:12:00,
2013-02-15 23:15:00,45.9,36.3,29.95,NNW,341,5.0,14.0,69,0.00,,---,0.00,VWS V13.01,2013-02-16 04:15:00,
2013-02-15 23:16:00,45.8,36.6,29.95,NW,325,6.0,14.0,70,0.00,,---,0.00,VWS V13.01,2013-02-16 04:16:00,
2013-02-15 23:17:00,45.8,36.6,29.95,NNW,343,4.0,14.0,70,0.00,,---,0.00,VWS V13.01,2013-02-16 04:17:00,
2013-02-15 23:20:00,45.7,36.5,29.95,NNE,28,0.0,14.0,70,0.00,,---,0.00,VWS V13.01,2013-02-16 04:20:00,
2013-02-15 23:21:00,45.6,36.4,29.95,North,355,10.0,14.0,70,0.00,,---,0.00,VWS V13.01,2013-02-16 04:21:00,
2013-02-15 23:22:00,45.6,36.4,29.95,NNW,340,0.0,14.0,70,0.00,,---,0.00,VWS V13.01,2013-02-16 04:22:00,
2013-02-15 23:25:00,45.4,36.6,29.95,North,355,0.0,14.0,71,0.00,,---,0.00,VWS V13.01,2013-02-16 04:25:00,
2013-02-15 23:26:00,45.4,36.6,29.95,North,355,0.0,14.0,71,0.00,,---,0.00,VWS V13.01,2013-02-16 04:26:00,
2013-02-15 23:27:00,45.3,36.5,29.95,NNW,348,3.0,14.0,71,0.00,,---,0.00,VWS V13.01,2013-02-16 04:27:00,
2013-02-15 23:31:00,45.1,36.3,29.95,NNW,336,5.0,14.0,71,0.00,,---,0.00,VWS V13.01,2013-02-16 04:31:00,
2013-02-15 23:33:00,45.0,36.2,29.95,NNW,338,0.0,5.0,71,0.00,,---,0.00,VWS V13.01,2013-02-16 04:33:00,
2013-02-15 23:36:00,45.0,36.2,29.95,NNW,346,1.0,5.0,71,0.00,,---,0.00,VWS V13.01,2013-02-16 04:36:00,
2013-02-15 23:38:00,45.0,36.2,29.94,NNW,342,2.0,6.0,71,0.00,,---,0.00,VWS V13.01,2013-02-16 04:38:00,
2013-02-15 23:41:00,44.8,36.0,29.94,NNW,334,7.0,11.0,71,0.00,,---,0.00,VWS V13.01,2013-02-16 04:41:00,
2013-02-15 23:43:00,44.6,35.4,29.94,NNW,339,2.0,11.0,70,0.00,,---,0.00,VWS V13.01,2013-02-16 04:43:00,
2013-02-15 23:46:00,44.5,35.7,29.94,NNW,348,0.0,11.0,71,0.00,,---,0.00,VWS V13.01,2013-02-16 04:46:00,
2013-02-15 23:48:00,44.4,35.2,29.94,NE,37,5.0,11.0,70,0.00,,---,0.00,VWS V13.01,2013-02-16 04:48:00,
2013-02-15 23:51:00,44.2,35.0,29.95,NNW,347,1.0,11.0,70,0.00,,---,0.00,VWS V13.01,2013-02-16 04:51:00,
2013-02-15 23:52:00,44.1,35.0,29.95,North,355,4.0,11.0,70,0.00,,---,0.00,VWS V13.01,2013-02-16 04:52:00,
2013-02-15 23:53:00,44.1,35.0,29.95,North,5,0.0,11.0,70,0.00,,---,0.00,VWS V13.01,2013-02-16 04:53:00,
2013-02-15 23:56:00,44.0,34.9,29.94,NNW,332,0.0,11.0,70,0.00,,---,0.00,VWS V13.01,2013-02-16 04:56:00,
2013-02-15 23:57:00,43.9,34.8,29.94,NNW,331,0.0,11.0,70,0.00,,---,0.00,VWS V13.01,2013-02-16 04:57:00,
2013-02-15 23:58:00,43.9,34.8,29.95,NNW,345,1.0,11.0,70,0.00,,---,0.00,VWS V13.01,2013-02-16 04:58:00,